Time,TemperatureF,DewpointF,PressureIn,WindDirection,WindDirectionDegrees,WindSpeedMPH,WindSpeedGustMPH,Humidity,HourlyPrecipIn,Conditions,Clouds,dailyrainin,SolarRadiationWatts/m^2,SoftwareType,DateUTC
2013-03-12 00:00:00,45.4,44.0,30.10,WSW,239,0.0,1.0,95,0.00,,---,0.00,0.00,VWS V14.01,2013-03-12 04:00:00,
2013-03-12 00:05:00,45.4,44.0,30.10,South,191,0.0,0.0,95,0.00,,---,0.00,0.00,VWS V14.01,2013-03-12 04:05:00,
2013-03-12 00:10:00,45.4,44.0,30.10,South,191,0.0,1.0,95,0.00,,---,0.00,0.00,VWS V14.01,2013-03-12 04:10:00,
2013-03-12 00:15:00,45.3,44.0,30.10,South,191,0.0,0.0,95,0.00,,---,0.00,0.00,VWS V14.01,2013-03-12 04:15:00,
2013-03-12 00:16:00,45.3,44.0,30.10,South,191,0.0,0.0,95,0.00,,---,0.00,0.00,VWS V14.01,2013-03-12 04:16:00,
2013-03-12 00:20:00,45.2,43.9,30.10,South,191,0.0,0.0,95,0.00,,---,0.00,0.00,VWS V14.01,2013-03-12 04:20:00,
2013-03-12 00:21:00,45.2,43.9,30.10,South,191,0.0,0.0,95,0.00,,---,0.00,0.00,VWS V14.01,2013-03-12 04:21:00,
2013-03-12 00:25:00,45.2,43.9,30.09,South,191,0.0,0.0,95,0.00,,---,0.00,0.00,VWS V14.01,2013-03-12 04:25:00,
2013-03-12 00:26:00,45.1,43.8,30.09,South,191,0.0,0.0,95,0.00,,---,0.00,0.00,VWS V14.01,2013-03-12 04:26:00,
2013-03-12 00:30:00,45.1,43.8,30.10,South,191,0.0,0.0,95,0.00,,---,0.00,0.00,VWS V14.01,2013-03-12 04:30:00,
2013-03-12 00:32:00,45.1,43.8,30.10,South,191,0.0,0.0,95,0.00,,---,0.00,0.00,VWS V14.01,2013-03-12 04:32:00,
2013-03-12 00:35:00,45.1,43.8,30.10,South,191,0.0,0.0,95,0.00,,---,0.00,0.00,VWS V14.01,2013-03-12 04:35:00,
2013-03-12 00:36:00,45.1,43.8,30.10,South,191,0.0,0.0,95,0.00,,---,0.00,0.00,VWS V14.01,2013-03-12 04:36:00,
2013-03-12 00:37:00,45.1,43.8,30.09,South,191,0.0,0.0,95,0.00,,---,0.00,0.00,VWS V14.01,2013-03-12 04:37:00,
2013-03-12 00:40:00,45.0,43.7,30.09,South,191,0.0,0.0,95,0.00,,---,0.00,0.00,VWS V14.01,2013-03-12 04:40:00,
2013-03-12 00:41:00,45.0,43.7,30.09,South,191,0.0,0.0,95,0.00,,---,0.00,0.00,VWS V14.01,2013-03-12 04:41:00,
2013-03-12 00:42:00,45.0,43.7,30.09,South,191,0.0,0.0,95,0.00,,---,0.00,0.00,VWS V14.01,2013-03-12 04:42:00,
2013-03-12 00:45:00,45.0,43.7,30.09,South,191,0.0,0.0,95,0.00,,---,0.00,0.00,VWS V14.01,2013-03-12 04:45:00,
2013-03-12 00:46:00,45.0,43.7,30.09,South,191,0.0,0.0,95,0.00,,---,0.00,0.00,VWS V14.01,2013-03-12 04:46:00,
2013-03-12 00:47:00,45.0,43.7,30.09,South,191,0.0,0.0,95,0.00,,---,0.00,0.00,VWS V14.01,2013-03-12 04:47:00,
2013-03-12 00:50:00,44.9,43.6,30.09,South,191,0.0,0.0,95,0.00,,---,0.00,0.00,VWS V14.01,2013-03-12 04:50:00,
2013-03-12 00:51:00,44.9,43.6,30.09,South,191,0.0,0.0,95,0.00,,---,0.00,0.00,VWS V14.01,2013-03-12 04:51:00,
2013-03-12 00:52:00,44.9,43.6,30.09,South,191,0.0,0.0,95,0.00,,---,0.00,0.00,VWS V14.01,2013-03-12 04:52:00,
2013-03-12 00:56:00,44.8,43.5,30.09,South,191,0.0,0.0,95,0.00,,---,0.00,0.00,VWS V14.01,2013-03-12 04:56:00,
2013-03-12 00:57:00,44.8,43.5,30.08,South,191,0.0,0.0,95,0.00,,---,0.00,0.00,VWS V14.01,2013-03-12 04:57:00,
2013-03-12 01:01:00,44.7,43.4,30.08,South,191,0.0,0.0,95,0.00,,---,0.00,0.00,VWS V14.01,2013-03-12 05:01:00,
2013-03-12 01:02:00,44.7,43.4,30.08,South,191,0.0,0.0,95,0.00,,---,0.00,0.00,VWS V14.01,2013-03-12 05:02:00,
2013-03-12 01:06:00,44.6,43.3,30.08,South,191,0.0,0.0,95,0.00,,---,0.00,0.00,VWS V14.01,2013-03-12 05:06:00,
2013-03-12 01:07:00,44.6,43.3,30.08,South,191,0.0,0.0,95,0.00,,---,0.00,0.00,VWS V14.01,2013-03-12 05:07:00,
2013-03-12 01:11:00,44.6,43.3,30.07,South,191,0.0,0.0,95,0.00,,---,0.00,0.00,VWS V14.01,2013-03-12 05:11:00,
2013-03-12 01:12:00,44.6,43.3,30.07,South,191,0.0,0.0,95,0.00,,---,0.00,0.00,VWS V14.01,2013-03-12 05:12:00,
2013-03-12 01:13:00,44.6,43.3,30.07,South,191,0.0,0.0,95,0.00,,---,0.00,0.00,VWS V14.01,2013-03-12 05:13:00,
2013-03-12 01:17:00,44.6,43.5,30.07,South,191,0.0,0.0,96,0.00,,---,0.00,0.00,VWS V14.01,2013-03-12 05:17:00,
2013-03-12 01:18:00,44.6,43.5,30.07,South,191,0.0,0.0,96,0.00,,---,0.00,0.00,VWS V14.01,2013-03-12 05:18:00,
2013-03-12 01:22:00,44.6,43.5,30.07,South,191,0.0,0.0,96,0.00,,---,0.00,0.00,VWS V14.01,2013-03-12 05:22:00,
2013-03-12 01:23:00,44.6,43.5,30.07,South,191,0.0,0.0,96,0.00,,---,0.00,0.00,VWS V14.01,2013-03-12 05:23:00,
2013-03-12 01:27:00,44.6,43.5,30.07,South,191,0.0,0.0,96,0.00,,---,0.00,0.00,VWS V14.01,2013-03-12 05:27:00,
2013-03-12 01:28:00,44.6,43.5,30.07,South,191,0.0,0.0,96,0.00,,---,0.00,0.00,VWS V14.01,2013-03-12 05:28:00,
2013-03-12 01:32:00,44.8,43.7,30.06,South,191,0.0,0.0,96,0.00,,---,0.00,0.00,VWS V14.01,2013-03-12 05:32:00,
2013-03-12 01:33:00,44.8,43.7,30.06,South,191,0.0,0.0,96,0.00,,---,0.00,0.00,VWS V14.01,2013-03-12 05:33:00,
2013-03-12 01:37:00,44.6,43.5,30.06,South,191,0.0,0.0,96,0.00,,---,0.00,0.00,VWS V14.01,2013-03-12 05:37:00,
2013-03-12 01:38:00,44.6,43.5,30.06,South,191,0.0,0.0,96,0.00,,---,0.00,0.00,VWS V14.01,2013-03-12 05:38:00,
2013-03-12 01:42:00,44.7,43.6,30.06,South,191,0.0,0.0,96,0.00,,---,0.00,0.00,VWS V14.01,2013-03-12 05:42:00,
2013-03-12 01:43:00,44.7,43.6,30.06,South,191,0.0,0.0,96,0.00,,---,0.00,0.00,VWS V14.01,2013-03-12 05:43:00,
2013-03-12 01:48:00,44.7,43.6,30.05,South,191,0.0,0.0,96,0.00,,---,0.00,0.00,VWS V14.01,2013-03-12 05:48:00,
2013-03-12 01:53:00,44.8,43.7,30.04,South,191,0.0,0.0,96,0.00,,---,0.00,0.00,VWS V14.01,2013-03-12 05:53:00,
2013-03-12 01:58:00,44.9,43.8,30.03,South,191,0.0,1.0,96,0.00,,---,0.00,0.00,VWS V14.01,2013-03-12 05:58:00,
2013-03-12 01:59:00,44.9,43.8,30.03,South,191,0.0,1.0,96,0.00,,---,0.00,0.00,VWS V14.01,2013-03-12 05:59:00,
2013-03-12 02:03:00,44.9,43.8,30.03,South,191,0.0,0.0,96,0.00,,---,0.00,0.00,VWS V14.01,2013-03-12 06:03:00,
2013-03-12 02:04:00,44.9,43.8,30.03,South,191,0.0,0.0,96,0.00,,---,0.00,0.00,VWS V14.01,2013-03-12 06:04:00,
2013-03-12 02:08:00,44.9,43.8,30.04,SSE,165,0.0,1.0,96,0.00,,---,0.00,0.00,VWS V14.01,2013-03-12 06:08:00,
2013-03-12 02:09:00,44.9,43.8,30.04,SSE,165,0.0,1.0,96,0.00,,---,0.00,0.00,VWS V14.01,2013-03-12 06:09:00,
2013-03-12 02:13:00,44.9,43.8,30.04,SW,219,1.0,2.0,96,0.00,,---,0.00,0.00,VWS V14.01,2013-03-12 06:13:00,
2013-03-12 02:14:00,44.9,43.8,30.04,SW,219,0.0,2.0,96,0.00,,---,0.00,0.00,VWS V14.01,2013-03-12 06:14:00,
2013-03-12 02:18:00,45.1,44.0,30.04,SW,219,0.0,2.0,96,0.00,,---,0.00,0.00,VWS V14.01,2013-03-12 06:18:00,
2013-03-12 02:19:00,45.1,44.0,30.04,SW,219,0.0,2.0,96,0.00,,---,0.00,0.00,VWS V14.01,2013-03-12 06:19:00,
2013-03-12 02:23:00,45.1,44.0,30.04,SW,219,0.0,0.0,96,0.00,,---,0.00,0.00,VWS V14.01,2013-03-12 06:23:00,
2013-03-12 02:24:00,45.1,44.0,30.04,SSW,205,1.0,1.0,96,0.00,,---,0.00,0.00,VWS V14.01,2013-03-12 06:24:00,
2013-03-12 02:29:00,45.3,44.2,30.03,SSW,204,0.0,1.0,96,0.00,,---,0.00,0.00,VWS V14.01,2013-03-12 06:29:00,
2013-03-12 02:34:00,45.5,44.4,30.03,ESE,122,0.0,0.0,96,0.00,,---,0.00,0.00,VWS V14.01,2013-03-12 06:34:00,
2013-03-12 02:39:00,45.5,44.4,30.03,ESE,122,0.0,0.0,96,0.00,,---,0.00,0.00,VWS V14.01,2013-03-12 06:39:00,
2013-03-12 02:44:00,45.5,44.4,30.03,ESE,122,0.0,0.0,96,0.00,,---,0.00,0.00,VWS V14.01,2013-03-12 06:44:00,
2013-03-12 02:45:00,45.5,44.4,30.03,ESE,122,0.0,0.0,96,0.00,,---,0.00,0.00,VWS V14.01,2013-03-12 06:45:00,
2013-03-12 02:49:00,45.5,44.4,30.02,ESE,122,0.0,0.0,96,0.00,,---,0.00,0.00,VWS V14.01,2013-03-12 06:49:00,
2013-03-12 02:50:00,45.5,44.4,30.02,ESE,122,0.0,0.0,96,0.00,,---,0.00,0.00,VWS V14.01,2013-03-12 06:50:00,
2013-03-12 02:54:00,45.5,44.4,30.02,ESE,122,0.0,0.0,96,0.00,,---,0.00,0.00,VWS V14.01,2013-03-12 06:54:00,
2013-03-12 02:55:00,45.5,44.4,30.02,ESE,122,0.0,0.0,96,0.00,,---,0.00,0.00,VWS V14.01,2013-03-12 06:55:00,
2013-03-12 02:59:00,45.5,44.4,30.01,ESE,122,0.0,0.0,96,0.00,,---,0.00,0.00,VWS V14.01,2013-03-12 06:59:00,
2013-03-12 03:00:00,45.5,44.4,30.01,ESE,122,0.0,0.0,96,0.00,,---,0.00,0.00,VWS V14.01,2013-03-12 07:00:00,
2013-03-12 03:04:00,45.5,44.4,30.01,ESE,122,0.0,0.0,96,0.00,,---,0.00,0.00,VWS V14.01,2013-03-12 07:04:00,
2013-03-12 03:05:00,45.5,44.4,30.01,ESE,122,0.0,0.0,96,0.00,,---,0.00,0.00,VWS V14.01,2013-03-12 07:05:00,
2013-03-12 03:09:00,45.6,44.5,30.01,ESE,122,0.0,0.0,96,0.00,,---,0.00,0.00,VWS V14.01,2013-03-12 07:09:00,
2013-03-12 03:10:00,45.5,44.4,30.01,ESE,122,0.0,0.0,96,0.00,,---,0.00,0.00,VWS V14.01,2013-03-12 07:10:00,
2013-03-12 03:14:00,45.6,44.5,30.01,ESE,122,0.0,0.0,96,0.00,,---,0.00,0.00,VWS V14.01,2013-03-12 07:14:00,
2013-03-12 03:15:00,45.7,44.6,30.01,ESE,122,0.0,0.0,96,0.00,,---,0.00,0.00,VWS V14.01,2013-03-12 07:15:00,
2013-03-12 03:19:00,46.0,44.9,30.02,ESE,122,0.0,1.0,96,0.00,,---,0.00,0.00,VWS V14.01,2013-03-12 07:19:00,
2013-03-12 03:20:00,46.0,44.9,30.02,ESE,122,0.0,1.0,96,0.00,,---,0.00,0.00,VWS V14.01,2013-03-12 07:20:00,
2013-03-12 03:21:00,46.0,44.9,30.02,ESE,122,0.0,1.0,96,0.00,,---,0.00,0.00,VWS V14.01,2013-03-12 07:21:00,
2013-03-12 03:24:00,46.0,44.9,30.02,ESE,122,0.0,0.0,96,0.00,,---,0.00,0.00,VWS V14.01,2013-03-12 07:24:00,
2013-03-12 03:25:00,46.0,44.9,30.02,ESE,122,0.0,0.0,96,0.00,,---,0.00,0.00,VWS V14.01,2013-03-12 07:25:00,
2013-03-12 03:26:00,46.1,45.0,30.02,ESE,122,0.0,0.0,96,0.00,,---,0.00,0.00,VWS V14.01,2013-03-12 07:26:00,
2013-03-12 03:29:00,46.2,45.1,30.01,ESE,122,0.0,0.0,96,0.00,,---,0.00,0.00,VWS V14.01,2013-03-12 07:29:00,
2013-03-12 03:30:00,46.2,45.1,30.02,ESE,122,0.0,0.0,96,0.00,,---,0.00,0.00,VWS V14.01,2013-03-12 07:30:00,
2013-03-12 03:31:00,46.2,45.1,30.02,ESE,122,0.0,0.0,96,0.00,,---,0.00,0.00,VWS V14.01,2013-03-12 07:31:00,
2013-03-12 03:35:00,46.2,45.1,30.01,ESE,122,0.0,0.0,96,0.00,,---,0.00,0.00,VWS V14.01,2013-03-12 07:35:00,
2013-03-12 03:36:00,46.2,45.1,30.01,ESE,122,0.0,0.0,96,0.00,,---,0.00,0.00,VWS V14.01,2013-03-12 07:36:00,
2013-03-12 03:40:00,46.3,45.2,30.01,ESE,122,0.0,0.0,96,0.00,,---,0.00,0.00,VWS V14.01,2013-03-12 07:40:00,
2013-03-12 03:41:00,46.3,45.2,30.01,ESE,122,0.0,0.0,96,0.00,,---,0.00,0.00,VWS V14.01,2013-03-12 07:41:00,
2013-03-12 03:42:00,46.3,45.2,30.01,ESE,122,0.0,0.0,96,0.00,,---,0.00,0.00,VWS V14.01,2013-03-12 07:42:00,
2013-03-12 03:45:00,46.3,45.2,30.01,ESE,122,0.0,0.0,96,0.00,,---,0.00,0.00,VWS V14.01,2013-03-12 07:45:00,
2013-03-12 03:46:00,46.4,45.3,30.01,ESE,122,0.0,0.0,96,0.00,,---,0.00,0.00,VWS V14.01,2013-03-12 07:46:00,
2013-03-12 03:47:00,46.4,45.3,30.01,ESE,122,0.0,0.0,96,0.00,,---,0.00,0.00,VWS V14.01,2013-03-12 07:47:00,
2013-03-12 03:50:00,46.5,45.4,30.01,ESE,122,0.0,0.0,96,0.00,,---,0.00,0.00,VWS V14.01,2013-03-12 07:50:00,
2013-03-12 03:52:00,46.5,45.4,30.01,ESE,122,0.0,0.0,96,0.00,,---,0.00,0.00,VWS V14.01,2013-03-12 07:52:00,
2013-03-12 03:55:00,46.5,45.2,30.01,ESE,122,0.0,0.0,95,0.00,,---,0.00,0.00,VWS V14.01,2013-03-12 07:55:00,
2013-03-12 03:56:00,46.5,45.2,30.01,ESE,122,0.0,0.0,95,0.00,,---,0.00,0.00,VWS V14.01,2013-03-12 07:56:00,
2013-03-12 03:57:00,46.6,45.5,30.01,ESE,122,0.0,0.0,96,0.00,,---,0.00,0.00,VWS V14.01,2013-03-12 07:57:00,
2013-03-12 04:00:00,46.8,45.7,30.01,ESE,122,0.0,0.0,96,0.00,,---,0.00,0.00,VWS V14.01,2013-03-12 08:00:00,
2013-03-12 04:01:00,46.9,45.8,30.01,ESE,122,0.0,0.0,96,0.00,,---,0.00,0.00,VWS V14.01,2013-03-12 08:01:00,
2013-03-12 04:02:00,46.9,45.8,30.01,ESE,122,0.0,0.0,96,0.00,,---,0.00,0.00,VWS V14.01,2013-03-12 08:02:00,
2013-03-12 04:05:00,47.0,45.7,30.01,ESE,122,0.0,0.0,95,0.00,,---,0.00,0.00,VWS V14.01,2013-03-12 08:05:00,
2013-03-12 04:06:00,47.0,45.7,30.01,ESE,122,0.0,0.0,95,0.00,,---,0.00,0.00,VWS V14.01,2013-03-12 08:06:00,
2013-03-12 04:07:00,47.0,45.7,30.01,ESE,122,0.0,0.0,95,0.00,,---,0.00,0.00,VWS V14.01,2013-03-12 08:07:00,
2013-03-12 04:08:00,46.9,45.5,30.01,ESE,122,0.0,0.0,95,0.00,,---,0.00,0.00,VWS V14.01,2013-03-12 08:08:00,
2013-03-12 04:10:00,46.9,45.5,30.01,ESE,122,0.0,0.0,95,0.00,,---,0.00,0.00,VWS V14.01,2013-03-12 08:10:00,
2013-03-12 04:12:00,46.9,45.5,30.01,ESE,122,0.0,0.0,95,0.00,,---,0.00,0.00,VWS V14.01,2013-03-12 08:12:00,
2013-03-12 04:13:00,47.0,45.7,30.01,ESE,122,0.0,0.0,95,0.00,,---,0.00,0.00,VWS V14.01,2013-03-12 08:13:00,
2013-03-12 04:15:00,47.1,45.7,30.01,ESE,122,0.0,0.0,95,0.00,,---,0.00,0.00,VWS V14.01,2013-03-12 08:15:00,
2013-03-12 04:17:00,47.1,45.7,30.01,ESE,122,0.0,0.0,95,0.00,,---,0.00,0.00,VWS V14.01,2013-03-12 08:17:00,
2013-03-12 04:18:00,47.1,45.7,30.01,ESE,122,0.0,0.0,95,0.00,,---,0.00,0.00,VWS V14.01,2013-03-12 08:18:00,
2013-03-12 04:20:00,47.3,45.9,30.01,ESE,122,0.0,0.0,95,0.00,,---,0.00,0.00,VWS V14.01,2013-03-12 08:20:00,
2013-03-12 04:22:00,47.3,45.9,30.01,ESE,122,0.0,0.0,95,0.00,,---,0.00,0.00,VWS V14.01,2013-03-12 08:22:00,
2013-03-12 04:23:00,47.3,45.9,30.01,ESE,122,0.0,0.0,95,0.00,,---,0.00,0.00,VWS V14.01,2013-03-12 08:23:00,
2013-03-12 04:25:00,47.3,45.9,30.01,ESE,122,0.0,0.0,95,0.00,,---,0.00,0.00,VWS V14.01,2013-03-12 08:25:00,
2013-03-12 04:27:00,47.4,46.0,30.01,ESE,122,0.0,0.0,95,0.00,,---,0.00,0.00,VWS V14.01,2013-03-12 08:27:00,
2013-03-12 04:28:00,47.4,46.0,30.01,ESE,122,1.0,1.0,95,0.00,,---,0.00,0.00,VWS V14.01,2013-03-12 08:28:00,
2013-03-12 04:30:00,47.5,46.1,30.01,ESE,122,1.0,1.0,95,0.00,,---,0.00,0.00,VWS V14.01,2013-03-12 08:30:00,
2013-03-12 04:32:00,47.6,46.0,30.01,ESE,122,0.0,1.0,94,0.00,,---,0.00,0.00,VWS V14.01,2013-03-12 08:32:00,
2013-03-12 04:33:00,47.6,46.0,30.00,ESE,122,0.0,0.0,94,0.00,,---,0.00,0.00,VWS V14.01,2013-03-12 08:33:00,
2013-03-12 04:35:00,47.7,46.1,30.00,ESE,122,0.0,0.0,94,0.00,,---,0.00,0.00,VWS V14.01,2013-03-12 08:35:00,
2013-03-12 04:37:00,47.7,46.1,30.00,ESE,122,0.0,0.0,94,0.00,,---,0.00,0.00,VWS V14.01,2013-03-12 08:37:00,
2013-03-12 04:38:00,47.8,46.2,30.00,ESE,122,0.0,0.0,94,0.00,,---,0.00,0.00,VWS V14.01,2013-03-12 08:38:00,
2013-03-12 04:39:00,47.8,46.2,30.00,ESE,122,0.0,0.0,94,0.00,,---,0.00,0.00,VWS V14.01,2013-03-12 08:39:00,
2013-03-12 04:40:00,47.7,45.8,30.00,ESE,122,0.0,0.0,93,0.00,,---,0.00,0.00,VWS V14.01,2013-03-12 08:40:00,
2013-03-12 04:43:00,47.7,45.8,30.00,ESE,122,0.0,0.0,93,0.00,,---,0.00,0.00,VWS V14.01,2013-03-12 08:43:00,
2013-03-12 04:44:00,47.7,45.8,30.00,ESE,122,0.0,0.0,93,0.00,,---,0.00,0.00,VWS V14.01,2013-03-12 08:44:00,
2013-03-12 04:45:00,47.7,45.8,30.01,ESE,122,0.0,0.0,93,0.00,,---,0.00,0.00,VWS V14.01,2013-03-12 08:45:00,
2013-03-12 04:48:00,47.8,45.6,30.01,ESE,122,0.0,0.0,92,0.00,,---,0.00,0.00,VWS V14.01,2013-03-12 08:48:00,
2013-03-12 04:49:00,47.8,45.9,30.01,ESE,122,0.0,0.0,93,0.00,,---,0.00,0.00,VWS V14.01,2013-03-12 08:49:00,
2013-03-12 04:51:00,47.8,45.9,30.00,ESE,122,0.0,0.0,93,0.00,,---,0.00,0.00,VWS V14.01,2013-03-12 08:51:00,
2013-03-12 04:53:00,47.9,45.7,30.00,ESE,122,0.0,0.0,92,0.00,,---,0.00,0.00,VWS V14.01,2013-03-12 08:53:00,
2013-03-12 04:54:00,47.9,45.7,30.00,ESE,117,0.0,1.0,92,0.00,,---,0.00,0.00,VWS V14.01,2013-03-12 08:54:00,
2013-03-12 04:56:00,47.8,45.6,30.00,ESE,122,0.0,1.0,92,0.00,,---,0.00,0.00,VWS V14.01,2013-03-12 08:56:00,
2013-03-12 04:58:00,47.9,45.7,30.00,ESE,122,0.0,1.0,92,0.00,,---,0.00,0.00,VWS V14.01,2013-03-12 08:58:00,
2013-03-12 04:59:00,48.0,45.8,29.99,ESE,122,0.0,1.0,92,0.00,,---,0.00,0.00,VWS V14.01,2013-03-12 08:59:00,
2013-03-12 05:01:00,47.9,45.7,29.99,ESE,123,1.0,1.0,92,0.00,,---,0.00,0.00,VWS V14.01,2013-03-12 09:01:00,
2013-03-12 05:03:00,47.9,45.4,30.00,ESE,123,0.0,0.0,91,0.00,,---,0.00,0.00,VWS V14.01,2013-03-12 09:03:00,
2013-03-12 05:04:00,47.9,45.4,30.00,ESE,123,0.0,0.0,91,0.00,,---,0.00,0.00,VWS V14.01,2013-03-12 09:04:00,
2013-03-12 05:06:00,47.9,45.4,30.00,SE,130,0.0,2.0,91,0.00,,---,0.00,0.00,VWS V14.01,2013-03-12 09:06:00,
2013-03-12 05:08:00,47.9,45.4,30.00,SE,130,0.0,2.0,91,0.00,,---,0.00,0.00,VWS V14.01,2013-03-12 09:08:00,
2013-03-12 05:09:00,47.9,45.4,30.00,SE,130,0.0,2.0,91,0.00,,---,0.00,0.00,VWS V14.01,2013-03-12 09:09:00,
2013-03-12 05:11:00,48.1,45.6,30.00,SE,134,0.0,2.0,91,0.00,,---,0.00,0.00,VWS V14.01,2013-03-12 09:11:00,
2013-03-12 05:13:00,48.2,45.7,30.00,SE,134,0.0,0.0,91,0.00,,---,0.00,0.00,VWS V14.01,2013-03-12 09:13:00,
2013-03-12 05:14:00,48.2,45.4,29.99,SE,134,0.0,1.0,90,0.00,,---,0.00,0.00,VWS V14.01,2013-03-12 09:14:00,
2013-03-12 05:17:00,48.3,45.5,30.00,SE,134,0.0,1.0,90,0.00,,---,0.00,0.00,VWS V14.01,2013-03-12 09:17:00,
2013-03-12 05:18:00,48.3,45.5,29.99,SE,137,0.0,1.0,90,0.00,,---,0.00,0.00,VWS V14.01,2013-03-12 09:18:00,
2013-03-12 05:19:00,48.4,45.6,29.99,SE,138,0.0,1.0,90,0.00,,---,0.00,0.00,VWS V14.01,2013-03-12 09:19:00,
2013-03-12 05:22:00,48.5,45.7,29.99,SE,138,0.0,1.0,90,0.00,,---,0.00,0.00,VWS V14.01,2013-03-12 09:22:00,
2013-03-12 05:23:00,48.5,45.7,29.99,SE,138,0.0,0.0,90,0.00,,---,0.00,0.00,VWS V14.01,2013-03-12 09:23:00,
2013-03-12 05:24:00,48.4,45.3,29.99,SE,138,0.0,0.0,89,0.00,,---,0.00,0.00,VWS V14.01,2013-03-12 09:24:00,
2013-03-12 05:27:00,48.5,45.7,29.99,SE,138,0.0,0.0,90,0.00,,---,0.00,0.00,VWS V14.01,2013-03-12 09:27:00,
2013-03-12 05:28:00,48.4,45.6,29.99,SE,138,0.0,0.0,90,0.00,,---,0.00,0.00,VWS V14.01,2013-03-12 09:28:00,
2013-03-12 05:29:00,48.3,45.5,29.99,SE,138,0.0,0.0,90,0.00,,---,0.00,0.00,VWS V14.01,2013-03-12 09:29:00,
2013-03-12 05:32:00,48.2,45.4,29.99,SE,138,0.0,1.0,90,0.00,,---,0.00,0.00,VWS V14.01,2013-03-12 09:32:00,
2013-03-12 05:33:00,48.2,45.7,29.99,SE,138,0.0,0.0,91,0.00,,---,0.00,0.00,VWS V14.01,2013-03-12 09:33:00,
2013-03-12 05:34:00,48.2,45.7,29.99,SE,138,0.0,0.0,91,0.00,,---,0.00,0.00,VWS V14.01,2013-03-12 09:34:00,
2013-03-12 05:37:00,48.0,45.8,29.99,SE,138,0.0,0.0,92,0.00,,---,0.00,0.00,VWS V14.01,2013-03-12 09:37:00,
2013-03-12 05:39:00,47.9,45.7,29.99,SE,138,0.0,0.0,92,0.00,,---,0.00,0.00,VWS V14.01,2013-03-12 09:39:00,
2013-03-12 05:42:00,47.9,46.0,29.99,SE,138,0.0,0.0,93,0.00,,---,0.00,0.00,VWS V14.01,2013-03-12 09:42:00,
2013-03-12 05:44:00,47.8,45.9,29.99,SE,138,0.0,0.0,93,0.00,,---,0.00,0.00,VWS V14.01,2013-03-12 09:44:00,
2013-03-12 05:47:00,47.8,45.9,29.99,SE,138,0.0,1.0,93,0.01,,---,0.01,0.00,VWS V14.01,2013-03-12 09:47:00,
2013-03-12 05:49:00,47.8,45.9,29.99,SE,138,0.0,1.0,93,0.01,,---,0.01,0.00,VWS V14.01,2013-03-12 09:49:00,
2013-03-12 05:50:00,47.8,45.9,29.99,SE,138,0.0,1.0,93,0.01,,---,0.01,0.00,VWS V14.01,2013-03-12 09:50:00,
2013-03-12 05:52:00,47.7,45.8,29.99,SE,138,0.0,0.0,93,0.01,,---,0.01,0.00,VWS V14.01,2013-03-12 09:52:00,
2013-03-12 05:54:00,47.7,45.8,29.98,SE,138,0.0,0.0,93,0.01,,---,0.01,0.00,VWS V14.01,2013-03-12 09:54:00,
2013-03-12 05:55:00,47.7,45.8,29.98,SE,138,0.0,0.0,93,0.01,,---,0.01,0.00,VWS V14.01,2013-03-12 09:55:00,
2013-03-12 05:57:00,47.6,46.0,29.99,SE,138,0.0,0.0,94,0.01,,---,0.01,0.00,VWS V14.01,2013-03-12 09:57:00,
2013-03-12 05:59:00,47.6,46.0,29.98,SE,138,0.0,0.0,94,0.02,,---,0.02,0.00,VWS V14.01,2013-03-12 09:59:00,
2013-03-12 06:00:00,47.5,45.9,29.98,SE,138,0.0,0.0,94,0.02,,---,0.02,0.00,VWS V14.01,2013-03-12 10:00:00,
2013-03-12 06:03:00,47.4,45.8,29.99,SE,138,0.0,0.0,94,0.02,,---,0.02,0.00,VWS V14.01,2013-03-12 10:03:00,
2013-03-12 06:04:00,47.4,45.8,29.99,SE,138,0.0,0.0,94,0.02,,---,0.02,0.00,VWS V14.01,2013-03-12 10:04:00,
2013-03-12 06:05:00,47.3,45.7,29.99,SE,138,0.0,0.0,94,0.02,,---,0.02,0.00,VWS V14.01,2013-03-12 10:05:00,
2013-03-12 06:08:00,47.3,45.7,29.98,SE,138,0.0,0.0,94,0.02,,---,0.02,0.00,VWS V14.01,2013-03-12 10:08:00,
2013-03-12 06:09:00,47.2,45.6,29.98,SE,138,0.0,0.0,94,0.02,,---,0.02,0.00,VWS V14.01,2013-03-12 10:09:00,
2013-03-12 06:10:00,47.2,45.6,29.98,SE,138,0.0,0.0,94,0.02,,---,0.02,0.00,VWS V14.01,2013-03-12 10:10:00,
2013-03-12 06:13:00,47.2,45.8,29.98,SE,138,0.0,0.0,95,0.03,,---,0.03,0.00,VWS V14.01,2013-03-12 10:13:00,
2013-03-12 06:14:00,47.2,45.8,29.98,SE,138,0.0,0.0,95,0.03,,---,0.03,0.00,VWS V14.01,2013-03-12 10:14:00,
2013-03-12 06:15:00,47.2,45.8,29.98,SE,138,0.0,0.0,95,0.03,,---,0.03,0.00,VWS V14.01,2013-03-12 10:15:00,
2013-03-12 06:18:00,47.1,45.7,29.98,SE,138,0.0,0.0,95,0.03,,---,0.03,0.00,VWS V14.01,2013-03-12 10:18:00,
2013-03-12 06:20:00,47.1,45.7,29.98,SE,138,0.0,0.0,95,0.03,,---,0.03,0.00,VWS V14.01,2013-03-12 10:20:00,
2013-03-12 06:21:00,47.1,45.7,29.98,SE,138,0.0,0.0,95,0.03,,---,0.03,0.00,VWS V14.01,2013-03-12 10:21:00,
2013-03-12 06:23:00,47.1,45.7,29.98,SE,138,0.0,0.0,95,0.03,,---,0.03,0.00,VWS V14.01,2013-03-12 10:23:00,
2013-03-12 06:25:00,47.0,45.7,29.98,SE,138,0.0,0.0,95,0.03,,---,0.03,0.00,VWS V14.01,2013-03-12 10:25:00,
2013-03-12 06:26:00,47.0,45.7,29.98,SE,138,0.0,0.0,95,0.03,,---,0.03,0.00,VWS V14.01,2013-03-12 10:26:00,
2013-03-12 06:28:00,47.0,45.7,29.98,SE,138,0.0,0.0,95,0.03,,---,0.03,0.00,VWS V14.01,2013-03-12 10:28:00,
2013-03-12 06:30:00,47.0,45.7,29.98,SE,138,0.0,0.0,95,0.03,,---,0.03,0.00,VWS V14.01,2013-03-12 10:30:00,
2013-03-12 06:31:00,47.1,45.7,29.97,SE,138,0.0,0.0,95,0.03,,---,0.03,0.00,VWS V14.01,2013-03-12 10:31:00,
2013-03-12 06:33:00,47.0,45.7,29.97,SE,138,0.0,0.0,95,0.03,,---,0.03,0.00,VWS V14.01,2013-03-12 10:33:00,
2013-03-12 06:35:00,47.1,45.7,29.97,SE,138,0.0,0.0,95,0.03,,---,0.03,0.00,VWS V14.01,2013-03-12 10:35:00,
2013-03-12 06:36:00,47.0,45.7,29.97,SE,138,0.0,1.0,95,0.03,,---,0.03,0.00,VWS V14.01,2013-03-12 10:36:00,
2013-03-12 06:38:00,47.1,45.7,29.97,SE,138,0.0,1.0,95,0.03,,---,0.03,0.00,VWS V14.01,2013-03-12 10:38:00,
2013-03-12 06:40:00,47.1,46.0,29.97,SE,138,0.0,1.0,96,0.03,,---,0.03,0.00,VWS V14.01,2013-03-12 10:40:00,
2013-03-12 06:42:00,47.1,45.7,29.97,SE,138,0.0,1.0,95,0.04,,---,0.04,0.00,VWS V14.01,2013-03-12 10:42:00,
2013-03-12 06:43:00,47.1,46.0,29.97,SE,138,0.0,0.0,96,0.04,,---,0.04,0.00,VWS V14.01,2013-03-12 10:43:00,
2013-03-12 06:45:00,47.0,45.9,29.97,SE,138,0.0,0.0,96,0.04,,---,0.04,0.00,VWS V14.01,2013-03-12 10:45:00,
2013-03-12 06:47:00,47.1,46.0,29.97,SE,138,0.0,0.0,96,0.04,,---,0.04,0.00,VWS V14.01,2013-03-12 10:47:00,
2013-03-12 06:48:00,47.0,45.9,29.97,SE,138,0.0,0.0,96,0.04,,---,0.04,0.00,VWS V14.01,2013-03-12 10:48:00,
2013-03-12 06:50:00,47.1,46.0,29.97,SE,138,0.0,0.0,96,0.04,,---,0.04,0.00,VWS V14.01,2013-03-12 10:50:00,
2013-03-12 06:52:00,47.1,46.0,29.97,SE,138,0.0,0.0,96,0.03,,---,0.04,0.00,VWS V14.01,2013-03-12 10:52:00,
2013-03-12 06:54:00,47.1,46.0,29.97,East,101,2.0,2.0,96,0.03,,---,0.04,0.00,VWS V14.01,2013-03-12 10:54:00,
2013-03-12 06:55:00,47.1,46.0,29.97,ESE,103,0.0,2.0,96,0.03,,---,0.04,0.00,VWS V14.01,2013-03-12 10:55:00,
2013-03-12 06:57:00,47.1,46.0,29.97,ESE,103,0.0,2.0,96,0.03,,---,0.04,0.00,VWS V14.01,2013-03-12 10:57:00,
2013-03-12 06:58:00,47.1,46.0,29.97,ESE,103,0.0,2.0,96,0.03,,---,0.04,0.00,VWS V14.01,2013-03-12 10:58:00,
2013-03-12 06:59:00,47.1,46.0,29.97,ESE,103,0.0,2.0,96,0.03,,---,0.04,0.00,VWS V14.01,2013-03-12 10:59:00,
2013-03-12 07:00:00,47.2,46.1,29.97,SE,125,0.0,2.0,96,0.04,,---,0.05,0.00,VWS V14.01,2013-03-12 11:00:00,
2013-03-12 07:02:00,47.1,46.0,29.97,ENE,77,0.0,1.0,96,0.03,,---,0.05,0.00,VWS V14.01,2013-03-12 11:02:00,
2013-03-12 07:03:00,47.1,46.0,29.97,ENE,78,0.0,1.0,96,0.03,,---,0.05,0.00,VWS V14.01,2013-03-12 11:03:00,
2013-03-12 07:04:00,47.1,46.0,29.97,ESE,123,0.0,1.0,96,0.03,,---,0.05,0.00,VWS V14.01,2013-03-12 11:04:00,
2013-03-12 07:05:00,47.1,46.0,29.97,ESE,123,0.0,1.0,96,0.03,,---,0.05,0.00,VWS V14.01,2013-03-12 11:05:00,
2013-03-12 07:07:00,47.2,46.1,29.97,ESE,123,0.0,1.0,96,0.03,,---,0.05,0.00,VWS V14.01,2013-03-12 11:07:00,
2013-03-12 07:08:00,47.2,46.1,29.97,ESE,123,0.0,1.0,96,0.03,,---,0.05,0.00,VWS V14.01,2013-03-12 11:08:00,
2013-03-12 07:09:00,47.2,46.1,29.98,ESE,123,0.0,1.0,96,0.03,,---,0.05,0.00,VWS V14.01,2013-03-12 11:09:00,
2013-03-12 07:10:00,47.1,46.0,29.97,ESE,123,0.0,1.0,96,0.03,,---,0.05,0.00,VWS V14.01,2013-03-12 11:10:00,
2013-03-12 07:13:00,47.2,46.1,29.97,ESE,123,0.0,0.0,96,0.02,,---,0.05,0.00,VWS V14.01,2013-03-12 11:13:00,
2013-03-12 07:14:00,47.1,46.0,29.97,ESE,123,0.0,0.0,96,0.02,,---,0.05,0.00,VWS V14.01,2013-03-12 11:14:00,
2013-03-12 07:15:00,47.1,46.0,29.97,ESE,123,0.0,0.0,96,0.03,,---,0.06,0.00,VWS V14.01,2013-03-12 11:15:00,
2013-03-12 07:18:00,47.0,45.9,29.97,ESE,123,0.0,0.0,96,0.03,,---,0.06,0.00,VWS V14.01,2013-03-12 11:18:00,
2013-03-12 07:19:00,47.0,45.9,29.97,ESE,115,0.0,1.0,96,0.03,,---,0.06,0.00,VWS V14.01,2013-03-12 11:19:00,
2013-03-12 07:20:00,47.0,45.9,29.97,ESE,115,0.0,1.0,96,0.03,,---,0.06,0.00,VWS V14.01,2013-03-12 11:20:00,
2013-03-12 07:23:00,47.0,45.9,29.97,ESE,115,0.0,0.0,96,0.03,,---,0.06,0.00,VWS V14.01,2013-03-12 11:23:00,
2013-03-12 07:24:00,47.0,45.9,29.97,ESE,115,0.0,0.0,96,0.03,,---,0.06,0.00,VWS V14.01,2013-03-12 11:24:00,
2013-03-12 07:27:00,47.0,45.9,29.97,ESE,115,0.0,0.0,96,0.03,,---,0.06,0.00,VWS V14.01,2013-03-12 11:27:00,
2013-03-12 07:28:00,47.0,45.9,29.97,ESE,115,0.0,0.0,96,0.03,,---,0.06,0.00,VWS V14.01,2013-03-12 11:28:00,
2013-03-12 07:29:00,47.0,45.9,29.97,ESE,115,0.0,0.0,96,0.03,,---,0.06,0.00,VWS V14.01,2013-03-12 11:29:00,
2013-03-12 07:32:00,46.9,45.8,29.97,ESE,115,0.0,0.0,96,0.03,,---,0.06,5.00,VWS V14.01,2013-03-12 11:32:00,
2013-03-12 07:33:00,46.9,45.8,29.97,ESE,115,0.0,0.0,96,0.03,,---,0.06,5.00,VWS V14.01,2013-03-12 11:33:00,
2013-03-12 07:34:00,46.9,45.8,29.97,ESE,115,0.0,0.0,96,0.03,,---,0.06,5.00,VWS V14.01,2013-03-12 11:34:00,
2013-03-12 07:37:00,46.8,45.7,29.97,ESE,115,0.0,0.0,96,0.03,,---,0.06,9.00,VWS V14.01,2013-03-12 11:37:00,
2013-03-12 07:38:00,46.8,45.7,29.97,ESE,115,0.0,0.0,96,0.03,,---,0.06,9.00,VWS V14.01,2013-03-12 11:38:00,
2013-03-12 07:39:00,46.8,45.7,29.97,ESE,115,0.0,0.0,96,0.03,,---,0.06,9.00,VWS V14.01,2013-03-12 11:39:00,
2013-03-12 07:43:00,46.8,45.7,29.97,ESE,115,0.0,0.0,96,0.02,,---,0.06,9.00,VWS V14.01,2013-03-12 11:43:00,
2013-03-12 07:44:00,46.8,45.7,29.97,ESE,115,0.0,1.0,96,0.02,,---,0.06,9.00,VWS V14.01,2013-03-12 11:44:00,
2013-03-12 07:45:00,46.7,45.6,29.97,ESE,115,0.0,1.0,96,0.02,,---,0.06,9.00,VWS V14.01,2013-03-12 11:45:00,
2013-03-12 07:48:00,46.7,45.6,29.97,ESE,115,0.0,1.0,96,0.03,,---,0.07,11.00,VWS V14.01,2013-03-12 11:48:00,
2013-03-12 07:49:00,46.7,45.6,29.97,ESE,115,0.0,1.0,96,0.03,,---,0.07,11.00,VWS V14.01,2013-03-12 11:49:00,
2013-03-12 07:50:00,46.7,45.6,29.97,ESE,115,0.0,1.0,96,0.03,,---,0.07,11.00,VWS V14.01,2013-03-12 11:50:00,
2013-03-12 07:53:00,46.7,45.6,29.97,ESE,115,0.0,0.0,96,0.03,,---,0.07,16.00,VWS V14.01,2013-03-12 11:53:00,
2013-03-12 07:54:00,46.7,45.6,29.97,ESE,115,0.0,0.0,96,0.03,,---,0.07,16.00,VWS V14.01,2013-03-12 11:54:00,
2013-03-12 07:55:00,46.7,45.6,29.97,SE,125,1.0,1.0,96,0.03,,---,0.07,16.00,VWS V14.01,2013-03-12 11:55:00,
2013-03-12 07:58:00,46.8,45.7,29.96,SE,125,0.0,1.0,96,0.03,,---,0.07,16.00,VWS V14.01,2013-03-12 11:58:00,
2013-03-12 07:59:00,46.8,45.7,29.96,SE,125,0.0,1.0,96,0.03,,---,0.07,16.00,VWS V14.01,2013-03-12 11:59:00,
2013-03-12 08:01:00,46.8,45.7,29.97,SSE,159,0.0,1.0,96,0.03,,---,0.07,14.00,VWS V14.01,2013-03-12 12:01:00,
2013-03-12 08:03:00,47.0,45.9,29.96,SSE,159,0.0,0.0,96,0.02,,---,0.07,14.00,VWS V14.01,2013-03-12 12:03:00,
2013-03-12 08:04:00,47.0,45.9,29.96,SSE,159,0.0,0.0,96,0.02,,---,0.07,14.00,VWS V14.01,2013-03-12 12:04:00,
2013-03-12 08:06:00,47.0,45.9,29.96,SSE,159,0.0,1.0,96,0.02,,---,0.07,12.00,VWS V14.01,2013-03-12 12:06:00,
2013-03-12 08:08:00,47.1,46.0,29.96,SSE,159,0.0,1.0,96,0.03,,---,0.08,12.00,VWS V14.01,2013-03-12 12:08:00,
2013-03-12 08:09:00,47.1,46.0,29.96,SSE,159,0.0,1.0,96,0.03,,---,0.08,12.00,VWS V14.01,2013-03-12 12:09:00,
2013-03-12 08:10:00,47.1,46.0,29.96,SSE,159,0.0,1.0,96,0.03,,---,0.08,12.00,VWS V14.01,2013-03-12 12:10:00,
2013-03-12 08:11:00,47.1,46.0,29.96,SSE,159,1.0,1.0,96,0.03,,---,0.08,14.00,VWS V14.01,2013-03-12 12:11:00,
2013-03-12 08:13:00,47.2,46.1,29.96,SSE,159,0.0,1.0,96,0.03,,---,0.08,16.00,VWS V14.01,2013-03-12 12:13:00,
2013-03-12 08:14:00,47.2,46.1,29.96,SSE,159,0.0,1.0,96,0.03,,---,0.08,16.00,VWS V14.01,2013-03-12 12:14:00,
2013-03-12 08:15:00,47.2,46.1,29.96,SSE,159,0.0,1.0,96,0.03,,---,0.08,16.00,VWS V14.01,2013-03-12 12:15:00,
2013-03-12 08:16:00,47.2,46.1,29.96,SSE,159,0.0,1.0,96,0.03,,---,0.08,16.00,VWS V14.01,2013-03-12 12:16:00,
2013-03-12 08:19:00,47.3,46.2,29.96,SSE,159,0.0,1.0,96,0.03,,---,0.08,18.00,VWS V14.01,2013-03-12 12:19:00,
2013-03-12 08:20:00,47.2,46.1,29.96,South,170,0.0,1.0,96,0.03,,---,0.08,19.00,VWS V14.01,2013-03-12 12:20:00,
2013-03-12 08:22:00,47.3,46.2,29.96,South,170,0.0,1.0,96,0.03,,---,0.08,21.00,VWS V14.01,2013-03-12 12:22:00,
2013-03-12 08:24:00,47.3,46.2,29.96,South,170,0.0,0.0,96,0.03,,---,0.09,21.00,VWS V14.01,2013-03-12 12:24:00,
2013-03-12 08:25:00,47.4,46.3,29.96,South,170,0.0,1.0,96,0.03,,---,0.09,21.00,VWS V14.01,2013-03-12 12:25:00,
2013-03-12 08:27:00,47.4,46.3,29.96,South,170,0.0,1.0,96,0.03,,---,0.09,21.00,VWS V14.01,2013-03-12 12:27:00,
2013-03-12 08:29:00,47.5,46.4,29.96,SSE,158,0.0,2.0,96,0.03,,---,0.09,21.00,VWS V14.01,2013-03-12 12:29:00,
2013-03-12 08:30:00,47.5,46.4,29.96,SSE,158,0.0,2.0,96,0.03,,---,0.09,21.00,VWS V14.01,2013-03-12 12:30:00,
2013-03-12 08:32:00,47.6,46.5,29.96,SSE,158,0.0,2.0,96,0.03,,---,0.09,19.00,VWS V14.01,2013-03-12 12:32:00,
2013-03-12 08:34:00,47.5,46.4,29.96,SSE,158,0.0,0.0,96,0.03,,---,0.09,18.00,VWS V14.01,2013-03-12 12:34:00,
2013-03-12 08:35:00,47.6,46.5,29.96,SSE,158,0.0,0.0,96,0.03,,---,0.09,18.00,VWS V14.01,2013-03-12 12:35:00,
2013-03-12 08:37:00,47.6,46.8,29.96,SE,125,1.0,1.0,97,0.03,,---,0.09,18.00,VWS V14.01,2013-03-12 12:37:00,
2013-03-12 08:39:00,47.6,46.8,29.96,ESE,121,0.0,1.0,97,0.03,,---,0.09,19.00,VWS V14.01,2013-03-12 12:39:00,
2013-03-12 08:40:00,47.6,46.8,29.96,ESE,121,0.0,1.0,97,0.03,,---,0.09,19.00,VWS V14.01,2013-03-12 12:40:00,
2013-03-12 08:41:00,47.6,46.8,29.96,ESE,121,0.0,1.0,97,0.03,,---,0.09,19.00,VWS V14.01,2013-03-12 12:41:00,
2013-03-12 08:42:00,47.6,46.8,29.96,ESE,121,0.0,0.0,97,0.04,,---,0.10,21.00,VWS V14.01,2013-03-12 12:42:00,
2013-03-12 08:44:00,47.7,46.9,29.96,SSW,197,0.0,1.0,97,0.04,,---,0.10,19.00,VWS V14.01,2013-03-12 12:44:00,
2013-03-12 08:45:00,47.7,46.9,29.96,South,185,0.0,1.0,97,0.04,,---,0.10,21.00,VWS V14.01,2013-03-12 12:45:00,
2013-03-12 08:46:00,47.7,46.9,29.96,South,185,0.0,1.0,97,0.04,,---,0.10,21.00,VWS V14.01,2013-03-12 12:46:00,
2013-03-12 08:47:00,47.8,47.0,29.96,South,185,0.0,1.0,97,0.04,,---,0.10,18.00,VWS V14.01,2013-03-12 12:47:00,
2013-03-12 08:49:00,47.8,47.0,29.96,South,185,0.0,1.0,97,0.04,,---,0.10,18.00,VWS V14.01,2013-03-12 12:49:00,
2013-03-12 08:50:00,47.8,47.0,29.96,South,185,0.0,1.0,97,0.04,,---,0.10,18.00,VWS V14.01,2013-03-12 12:50:00,
2013-03-12 08:51:00,47.8,47.0,29.96,South,185,0.0,1.0,97,0.04,,---,0.10,16.00,VWS V14.01,2013-03-12 12:51:00,
2013-03-12 08:53:00,47.8,47.0,29.96,South,185,0.0,0.0,97,0.03,,---,0.10,16.00,VWS V14.01,2013-03-12 12:53:00,
2013-03-12 08:54:00,47.8,47.0,29.96,South,185,0.0,0.0,97,0.03,,---,0.10,16.00,VWS V14.01,2013-03-12 12:54:00,
2013-03-12 08:56:00,47.9,47.1,29.96,South,185,0.0,1.0,97,0.03,,---,0.10,16.00,VWS V14.01,2013-03-12 12:56:00,
2013-03-12 08:57:00,47.9,47.1,29.96,South,185,0.0,1.0,97,0.03,,---,0.10,16.00,VWS V14.01,2013-03-12 12:57:00,
2013-03-12 08:58:00,47.9,47.1,29.96,South,185,0.0,1.0,97,0.03,,---,0.10,14.00,VWS V14.01,2013-03-12 12:58:00,
2013-03-12 08:59:00,47.9,47.1,29.96,South,185,0.0,1.0,97,0.04,,---,0.11,14.00,VWS V14.01,2013-03-12 12:59:00,
2013-03-12 09:01:00,47.9,47.1,29.96,South,185,0.0,1.0,97,0.04,,---,0.11,14.00,VWS V14.01,2013-03-12 13:01:00,
2013-03-12 09:02:00,47.9,47.1,29.96,South,185,0.0,1.0,97,0.04,,---,0.11,14.00,VWS V14.01,2013-03-12 13:02:00,
2013-03-12 09:03:00,47.9,47.1,29.96,South,185,0.0,0.0,97,0.04,,---,0.11,12.00,VWS V14.01,2013-03-12 13:03:00,
2013-03-12 09:04:00,47.9,47.1,29.96,SE,140,1.0,1.0,97,0.04,,---,0.11,14.00,VWS V14.01,2013-03-12 13:04:00,
2013-03-12 09:06:00,47.9,47.1,29.96,SE,140,0.0,1.0,97,0.04,,---,0.11,16.00,VWS V14.01,2013-03-12 13:06:00,
2013-03-12 09:07:00,47.9,47.1,29.96,SE,140,0.0,1.0,97,0.04,,---,0.11,16.00,VWS V14.01,2013-03-12 13:07:00,
2013-03-12 09:08:00,47.9,47.1,29.96,ESE,117,1.0,2.0,97,0.04,,---,0.11,19.00,VWS V14.01,2013-03-12 13:08:00,
2013-03-12 09:09:00,48.1,47.3,29.96,ESE,118,0.0,2.0,97,0.04,,---,0.11,19.00,VWS V14.01,2013-03-12 13:09:00,
2013-03-12 09:11:00,48.1,47.3,29.96,SE,134,0.0,3.0,97,0.05,,---,0.12,19.00,VWS V14.01,2013-03-12 13:11:00,
2013-03-12 09:12:00,48.1,47.3,29.96,SE,134,0.0,3.0,97,0.05,,---,0.12,18.00,VWS V14.01,2013-03-12 13:12:00,
2013-03-12 09:13:00,48.1,47.3,29.96,SE,134,0.0,0.0,97,0.04,,---,0.12,19.00,VWS V14.01,2013-03-12 13:13:00,
2013-03-12 09:14:00,48.1,47.3,29.96,SE,134,0.0,0.0,97,0.04,,---,0.12,19.00,VWS V14.01,2013-03-12 13:14:00,
2013-03-12 09:17:00,48.0,47.2,29.95,SE,134,0.0,0.0,97,0.04,,---,0.12,18.00,VWS V14.01,2013-03-12 13:17:00,
2013-03-12 09:18:00,48.0,47.2,29.95,SE,134,0.0,0.0,97,0.04,,---,0.12,21.00,VWS V14.01,2013-03-12 13:18:00,
2013-03-12 09:19:00,48.0,47.2,29.95,SE,134,0.0,0.0,97,0.04,,---,0.12,21.00,VWS V14.01,2013-03-12 13:19:00,
2013-03-12 09:22:00,48.0,47.2,29.95,SE,134,0.0,1.0,97,0.05,,---,0.13,19.00,VWS V14.01,2013-03-12 13:22:00,
2013-03-12 09:23:00,48.0,47.2,29.95,SE,134,0.0,1.0,97,0.05,,---,0.13,21.00,VWS V14.01,2013-03-12 13:23:00,
2013-03-12 09:24:00,48.1,47.3,29.95,SE,134,0.0,1.0,97,0.05,,---,0.13,19.00,VWS V14.01,2013-03-12 13:24:00,
2013-03-12 09:27:00,48.2,47.4,29.95,SE,134,0.0,1.0,97,0.05,,---,0.13,23.00,VWS V14.01,2013-03-12 13:27:00,
2013-03-12 09:28:00,48.2,47.4,29.95,SE,134,0.0,1.0,97,0.05,,---,0.13,21.00,VWS V14.01,2013-03-12 13:28:00,
2013-03-12 09:30:00,48.1,47.3,29.95,SE,134,0.0,1.0,97,0.05,,---,0.13,19.00,VWS V14.01,2013-03-12 13:30:00,
2013-03-12 09:32:00,48.2,47.4,29.95,SE,134,0.0,0.0,97,0.04,,---,0.13,23.00,VWS V14.01,2013-03-12 13:32:00,
2013-03-12 09:33:00,48.2,47.4,29.95,SE,134,0.0,0.0,97,0.04,,---,0.13,23.00,VWS V14.01,2013-03-12 13:33:00,
2013-03-12 09:35:00,48.3,47.5,29.95,SE,134,0.0,2.0,97,0.04,,---,0.13,23.00,VWS V14.01,2013-03-12 13:35:00,
2013-03-12 09:38:00,48.3,47.5,29.95,SE,134,0.0,2.0,97,0.04,,---,0.13,23.00,VWS V14.01,2013-03-12 13:38:00,
2013-03-12 09:40:00,48.3,47.5,29.95,SE,134,0.0,2.0,97,0.04,,---,0.13,23.00,VWS V14.01,2013-03-12 13:40:00,
2013-03-12 09:43:00,48.4,47.6,29.94,SE,136,0.0,1.0,97,0.03,,---,0.13,19.00,VWS V14.01,2013-03-12 13:43:00,
2013-03-12 09:45:00,48.4,47.6,29.94,SSE,162,0.0,1.0,97,0.04,,---,0.14,25.00,VWS V14.01,2013-03-12 13:45:00,
2013-03-12 09:48:00,48.4,47.6,29.94,SSE,163,0.0,1.0,97,0.04,,---,0.14,25.00,VWS V14.01,2013-03-12 13:48:00,
2013-03-12 09:50:00,48.3,47.5,29.94,SSE,163,0.0,1.0,97,0.04,,---,0.14,26.00,VWS V14.01,2013-03-12 13:50:00,
2013-03-12 09:53:00,48.4,47.6,29.94,SSE,163,0.0,1.0,97,0.04,,---,0.14,25.00,VWS V14.01,2013-03-12 13:53:00,
2013-03-12 09:55:00,48.3,47.5,29.94,SSE,163,0.0,1.0,97,0.04,,---,0.14,23.00,VWS V14.01,2013-03-12 13:55:00,
2013-03-12 09:58:00,48.3,47.5,29.94,SSE,163,0.0,1.0,97,0.04,,---,0.14,26.00,VWS V14.01,2013-03-12 13:58:00,
2013-03-12 09:59:00,48.3,47.5,29.94,SSE,163,0.0,1.0,97,0.04,,---,0.14,26.00,VWS V14.01,2013-03-12 13:59:00,
2013-03-12 10:00:00,48.3,47.5,29.94,SSE,163,0.0,1.0,97,0.04,,---,0.14,19.00,VWS V14.01,2013-03-12 14:00:00,
2013-03-12 10:04:00,48.3,47.5,29.94,SSE,147,1.0,1.0,97,0.04,,---,0.15,26.00,VWS V14.01,2013-03-12 14:04:00,
2013-03-12 10:05:00,48.4,47.6,29.94,SSE,155,0.0,2.0,97,0.04,,---,0.15,19.00,VWS V14.01,2013-03-12 14:05:00,
2013-03-12 10:09:00,48.5,47.7,29.94,SSE,155,0.0,2.0,97,0.04,,---,0.15,26.00,VWS V14.01,2013-03-12 14:09:00,
2013-03-12 10:10:00,48.4,47.6,29.94,SSE,155,0.0,2.0,97,0.04,,---,0.15,23.00,VWS V14.01,2013-03-12 14:10:00,
2013-03-12 10:14:00,48.4,47.6,29.94,SSE,152,0.0,1.0,97,0.03,,---,0.15,25.00,VWS V14.01,2013-03-12 14:14:00,
2013-03-12 10:16:00,48.5,47.7,29.93,SSE,153,1.0,1.0,97,0.04,,---,0.16,25.00,VWS V14.01,2013-03-12 14:16:00,
2013-03-12 10:19:00,48.6,47.8,29.93,SSE,153,0.0,1.0,97,0.04,,---,0.16,23.00,VWS V14.01,2013-03-12 14:19:00,
2013-03-12 10:21:00,48.7,47.9,29.93,SSE,153,0.0,1.0,97,0.04,,---,0.16,21.00,VWS V14.01,2013-03-12 14:21:00,
2013-03-12 10:24:00,48.7,47.9,29.93,SSE,156,0.0,1.0,97,0.04,,---,0.17,23.00,VWS V14.01,2013-03-12 14:24:00,
2013-03-12 10:27:00,48.7,47.9,29.93,SSE,166,0.0,1.0,97,0.04,,---,0.17,26.00,VWS V14.01,2013-03-12 14:27:00,
2013-03-12 10:29:00,48.8,48.0,29.93,SSE,166,0.0,1.0,97,0.04,,---,0.17,26.00,VWS V14.01,2013-03-12 14:29:00,
2013-03-12 10:32:00,48.8,48.0,29.93,SSE,165,0.0,1.0,97,0.04,,---,0.17,25.00,VWS V14.01,2013-03-12 14:32:00,
2013-03-12 10:34:00,48.8,48.0,29.93,ESE,123,0.0,3.0,97,0.05,,---,0.18,25.00,VWS V14.01,2013-03-12 14:34:00,
2013-03-12 10:35:00,48.9,48.1,29.92,SE,132,0.0,3.0,97,0.05,,---,0.18,28.00,VWS V14.01,2013-03-12 14:35:00,
2013-03-12 10:37:00,48.9,48.1,29.92,SE,132,0.0,3.0,97,0.05,,---,0.18,26.00,VWS V14.01,2013-03-12 14:37:00,
2013-03-12 10:39:00,48.9,48.1,29.92,SE,142,1.0,3.0,97,0.05,,---,0.18,25.00,VWS V14.01,2013-03-12 14:39:00,
2013-03-12 10:40:00,49.0,48.2,29.92,SE,141,1.0,3.0,97,0.06,,---,0.19,23.00,VWS V14.01,2013-03-12 14:40:00,
2013-03-12 10:42:00,49.0,48.2,29.92,SE,139,0.0,3.0,97,0.06,,---,0.19,25.00,VWS V14.01,2013-03-12 14:42:00,
2013-03-12 10:44:00,49.0,48.2,29.92,SE,140,0.0,1.0,97,0.06,,---,0.19,25.00,VWS V14.01,2013-03-12 14:44:00,
2013-03-12 10:46:00,48.9,48.1,29.92,SE,140,0.0,1.0,97,0.06,,---,0.19,25.00,VWS V14.01,2013-03-12 14:46:00,
2013-03-12 10:47:00,48.9,48.1,29.92,SE,140,0.0,1.0,97,0.07,,---,0.20,21.00,VWS V14.01,2013-03-12 14:47:00,
2013-03-12 10:49:00,49.0,48.2,29.91,SE,140,1.0,1.0,97,0.07,,---,0.20,21.00,VWS V14.01,2013-03-12 14:49:00,
2013-03-12 10:51:00,48.9,48.1,29.91,SE,142,0.0,1.0,97,0.07,,---,0.20,26.00,VWS V14.01,2013-03-12 14:51:00,
2013-03-12 10:52:00,48.9,48.1,29.91,SE,142,0.0,0.0,97,0.06,,---,0.20,26.00,VWS V14.01,2013-03-12 14:52:00,
2013-03-12 10:54:00,48.8,48.0,29.91,SE,142,0.0,0.0,97,0.06,,---,0.20,26.00,VWS V14.01,2013-03-12 14:54:00,
2013-03-12 10:56:00,48.9,48.1,29.91,SE,142,0.0,1.0,97,0.07,,---,0.21,28.00,VWS V14.01,2013-03-12 14:56:00,
2013-03-12 10:58:00,49.0,48.2,29.91,South,190,1.0,2.0,97,0.07,,---,0.21,28.00,VWS V14.01,2013-03-12 14:58:00,
2013-03-12 10:59:00,49.0,48.2,29.91,SSE,147,0.0,2.0,97,0.07,,---,0.21,25.00,VWS V14.01,2013-03-12 14:59:00,
2013-03-12 11:00:00,49.0,48.2,29.91,SSE,147,0.0,2.0,97,0.07,,---,0.21,25.00,VWS V14.01,2013-03-12 15:00:00,
2013-03-12 11:01:00,49.0,48.2,29.91,SE,130,1.0,2.0,97,0.07,,---,0.21,33.00,VWS V14.01,2013-03-12 15:01:00,
2013-03-12 11:03:00,49.1,48.3,29.91,SSW,194,0.0,0.0,97,0.07,,---,0.21,30.00,VWS V14.01,2013-03-12 15:03:00,
2013-03-12 11:04:00,49.1,48.3,29.91,South,178,0.0,1.0,97,0.08,,---,0.22,26.00,VWS V14.01,2013-03-12 15:04:00,
2013-03-12 11:05:00,49.1,48.3,29.91,South,178,1.0,1.0,97,0.08,,---,0.22,26.00,VWS V14.01,2013-03-12 15:05:00,
2013-03-12 11:06:00,49.2,48.4,29.91,South,178,0.0,1.0,97,0.08,,---,0.22,28.00,VWS V14.01,2013-03-12 15:06:00,
2013-03-12 11:08:00,49.2,48.4,29.91,SW,214,0.0,2.0,97,0.08,,---,0.22,23.00,VWS V14.01,2013-03-12 15:08:00,
2013-03-12 11:09:00,49.2,48.4,29.91,SE,143,0.0,2.0,97,0.08,,---,0.22,25.00,VWS V14.01,2013-03-12 15:09:00,
2013-03-12 11:10:00,49.2,48.4,29.91,SE,143,0.0,2.0,97,0.09,,---,0.23,26.00,VWS V14.01,2013-03-12 15:10:00,
2013-03-12 11:12:00,49.2,48.4,29.91,SE,143,0.0,2.0,97,0.09,,---,0.23,26.00,VWS V14.01,2013-03-12 15:12:00,
2013-03-12 11:13:00,49.3,48.5,29.91,SSE,162,2.0,2.0,97,0.08,,---,0.23,28.00,VWS V14.01,2013-03-12 15:13:00,
2013-03-12 11:14:00,49.3,48.5,29.91,SSE,166,0.0,2.0,97,0.08,,---,0.23,23.00,VWS V14.01,2013-03-12 15:14:00,
2013-03-12 11:15:00,49.3,48.5,29.91,SSE,166,0.0,2.0,97,0.08,,---,0.23,25.00,VWS V14.01,2013-03-12 15:15:00,
2013-03-12 11:17:00,49.3,48.5,29.91,SSE,166,0.0,2.0,97,0.09,,---,0.24,21.00,VWS V14.01,2013-03-12 15:17:00,
2013-03-12 11:18:00,49.3,48.5,29.91,SSE,166,0.0,2.0,97,0.09,,---,0.24,23.00,VWS V14.01,2013-03-12 15:18:00,
2013-03-12 11:20:00,49.3,48.5,29.91,SSE,159,0.0,2.0,97,0.09,,---,0.24,28.00,VWS V14.01,2013-03-12 15:20:00,
2013-03-12 11:22:00,49.4,48.6,29.91,South,174,1.0,2.0,97,0.10,,---,0.25,28.00,VWS V14.01,2013-03-12 15:22:00,
2013-03-12 11:23:00,49.4,48.6,29.90,SSE,148,0.0,2.0,97,0.09,,---,0.25,25.00,VWS V14.01,2013-03-12 15:23:00,
2013-03-12 11:25:00,49.4,48.6,29.90,SE,140,0.0,2.0,97,0.09,,---,0.25,32.00,VWS V14.01,2013-03-12 15:25:00,
2013-03-12 11:27:00,49.4,48.6,29.90,SE,140,0.0,2.0,97,0.10,,---,0.26,30.00,VWS V14.01,2013-03-12 15:27:00,
2013-03-12 11:28:00,49.3,48.5,29.90,SE,140,0.0,2.0,97,0.10,,---,0.26,35.00,VWS V14.01,2013-03-12 15:28:00,
2013-03-12 11:30:00,49.2,48.4,29.90,SSE,155,0.0,2.0,97,0.10,,---,0.26,35.00,VWS V14.01,2013-03-12 15:30:00,
2013-03-12 11:33:00,49.3,48.5,29.90,SE,126,2.0,2.0,97,0.10,,---,0.27,26.00,VWS V14.01,2013-03-12 15:33:00,
2013-03-12 11:35:00,49.4,48.6,29.90,SE,136,0.0,3.0,97,0.10,,---,0.27,26.00,VWS V14.01,2013-03-12 15:35:00,
2013-03-12 11:38:00,49.4,48.6,29.90,SSE,163,0.0,3.0,97,0.11,,---,0.28,30.00,VWS V14.01,2013-03-12 15:38:00,
2013-03-12 11:40:00,49.4,48.6,29.90,SE,132,0.0,3.0,97,0.11,,---,0.28,26.00,VWS V14.01,2013-03-12 15:40:00,
2013-03-12 11:43:00,49.4,48.6,29.89,SE,135,0.0,0.0,97,0.09,,---,0.28,23.00,VWS V14.01,2013-03-12 15:43:00,
2013-03-12 11:45:00,49.4,48.6,29.89,SSE,155,0.0,2.0,97,0.10,,---,0.29,23.00,VWS V14.01,2013-03-12 15:45:00,
2013-03-12 11:46:00,49.4,48.6,29.89,SSE,155,0.0,2.0,97,0.10,,---,0.29,23.00,VWS V14.01,2013-03-12 15:46:00,
2013-03-12 11:48:00,49.3,48.5,29.89,SSE,163,0.0,2.0,97,0.11,,---,0.30,23.00,VWS V14.01,2013-03-12 15:48:00,
2013-03-12 11:50:00,49.3,48.5,29.89,SSE,156,0.0,2.0,97,0.11,,---,0.30,19.00,VWS V14.01,2013-03-12 15:50:00,
2013-03-12 11:51:00,49.3,48.5,29.89,SSE,156,0.0,2.0,97,0.12,,---,0.31,23.00,VWS V14.01,2013-03-12 15:51:00,
2013-03-12 11:53:00,49.3,48.5,29.89,SSE,157,0.0,1.0,97,0.11,,---,0.31,18.00,VWS V14.01,2013-03-12 15:53:00,
2013-03-12 11:54:00,49.3,48.5,29.89,SSE,157,0.0,1.0,97,0.11,,---,0.31,18.00,VWS V14.01,2013-03-12 15:54:00,
2013-03-12 11:55:00,49.2,48.4,29.89,SE,140,1.0,1.0,97,0.12,,---,0.32,23.00,VWS V14.01,2013-03-12 15:55:00,
2013-03-12 11:56:00,49.3,48.5,29.89,SSE,165,0.0,3.0,97,0.12,,---,0.32,23.00,VWS V14.01,2013-03-12 15:56:00,
2013-03-12 11:58:00,49.2,48.4,29.88,SSE,165,0.0,3.0,97,0.13,,---,0.33,25.00,VWS V14.01,2013-03-12 15:58:00,
2013-03-12 11:59:00,49.2,48.4,29.88,SSE,165,0.0,3.0,97,0.13,,---,0.33,25.00,VWS V14.01,2013-03-12 15:59:00,
2013-03-12 12:00:00,49.3,48.5,29.88,SSE,165,0.0,3.0,97,0.13,,---,0.33,23.00,VWS V14.01,2013-03-12 16:00:00,
2013-03-12 12:01:00,49.3,48.5,29.88,SSE,163,0.0,3.0,97,0.14,,---,0.34,25.00,VWS V14.01,2013-03-12 16:01:00,
2013-03-12 12:04:00,49.4,48.6,29.88,SE,142,1.0,2.0,97,0.13,,---,0.34,30.00,VWS V14.01,2013-03-12 16:04:00,
2013-03-12 12:05:00,49.4,48.6,29.88,SE,142,0.0,2.0,97,0.14,,---,0.35,33.00,VWS V14.01,2013-03-12 16:05:00,
2013-03-12 12:07:00,49.4,48.6,29.88,ESE,115,1.0,4.0,97,0.14,,---,0.35,32.00,VWS V14.01,2013-03-12 16:07:00,
2013-03-12 12:09:00,49.4,48.6,29.88,SSE,151,0.0,4.0,97,0.15,,---,0.36,33.00,VWS V14.01,2013-03-12 16:09:00,
2013-03-12 12:11:00,49.4,48.6,29.88,South,186,1.0,4.0,97,0.15,,---,0.36,32.00,VWS V14.01,2013-03-12 16:11:00,
2013-03-12 12:12:00,49.3,48.5,29.88,South,186,0.0,4.0,97,0.15,,---,0.36,33.00,VWS V14.01,2013-03-12 16:12:00,
2013-03-12 12:14:00,49.4,48.6,29.88,SSE,163,1.0,2.0,97,0.14,,---,0.37,28.00,VWS V14.01,2013-03-12 16:14:00,
2013-03-12 12:16:00,49.5,48.7,29.88,SSE,163,0.0,2.0,97,0.14,,---,0.37,33.00,VWS V14.01,2013-03-12 16:16:00,
2013-03-12 12:17:00,49.5,48.7,29.88,SSE,163,0.0,2.0,97,0.14,,---,0.37,32.00,VWS V14.01,2013-03-12 16:17:00,
2013-03-12 12:19:00,49.5,48.7,29.88,NE,50,1.0,2.0,97,0.15,,---,0.38,40.00,VWS V14.01,2013-03-12 16:19:00,
2013-03-12 12:20:00,49.5,48.7,29.88,SSE,165,1.0,2.0,97,0.15,,---,0.38,32.00,VWS V14.01,2013-03-12 16:20:00,
2013-03-12 12:22:00,49.5,48.7,29.87,SSE,167,0.0,2.0,97,0.15,,---,0.38,28.00,VWS V14.01,2013-03-12 16:22:00,
2013-03-12 12:25:00,49.5,48.7,29.87,SSE,154,0.0,3.0,97,0.14,,---,0.39,28.00,VWS V14.01,2013-03-12 16:25:00,
2013-03-12 12:27:00,49.6,48.8,29.87,South,180,0.0,3.0,97,0.14,,---,0.39,32.00,VWS V14.01,2013-03-12 16:27:00,
2013-03-12 12:30:00,49.7,48.9,29.87,ESE,105,0.0,3.0,97,0.15,,---,0.40,30.00,VWS V14.01,2013-03-12 16:30:00,
2013-03-12 12:32:00,49.7,48.9,29.86,SE,129,0.0,0.0,97,0.14,,---,0.41,30.00,VWS V14.01,2013-03-12 16:32:00,
2013-03-12 12:35:00,49.6,48.8,29.86,SE,136,1.0,1.0,97,0.15,,---,0.42,30.00,VWS V14.01,2013-03-12 16:35:00,
2013-03-12 12:37:00,49.7,48.9,29.86,SE,137,0.0,2.0,97,0.16,,---,0.43,28.00,VWS V14.01,2013-03-12 16:37:00,
2013-03-12 12:38:00,49.7,48.9,29.86,SE,136,0.0,2.0,97,0.16,,---,0.43,39.00,VWS V14.01,2013-03-12 16:38:00,
2013-03-12 12:40:00,49.7,48.9,29.87,SSE,161,0.0,2.0,97,0.17,,---,0.44,37.00,VWS V14.01,2013-03-12 16:40:00,
2013-03-12 12:42:00,49.8,49.0,29.86,SSE,152,0.0,0.0,97,0.16,,---,0.44,28.00,VWS V14.01,2013-03-12 16:42:00,
2013-03-12 12:43:00,49.8,49.0,29.86,SE,132,0.0,2.0,97,0.17,,---,0.45,30.00,VWS V14.01,2013-03-12 16:43:00,
2013-03-12 12:45:00,49.8,49.0,29.86,SE,133,0.0,2.0,97,0.17,,---,0.45,32.00,VWS V14.01,2013-03-12 16:45:00,
2013-03-12 12:47:00,49.8,49.0,29.86,SE,135,0.0,2.0,97,0.18,,---,0.46,32.00,VWS V14.01,2013-03-12 16:47:00,
2013-03-12 12:48:00,49.8,49.0,29.86,SE,135,0.0,2.0,97,0.18,,---,0.46,30.00,VWS V14.01,2013-03-12 16:48:00,
2013-03-12 12:50:00,49.8,49.0,29.86,SSE,155,0.0,2.0,97,0.19,,---,0.47,32.00,VWS V14.01,2013-03-12 16:50:00,
2013-03-12 12:52:00,49.9,49.1,29.86,SE,126,1.0,1.0,97,0.17,,---,0.48,28.00,VWS V14.01,2013-03-12 16:52:00,
2013-03-12 12:53:00,49.9,49.1,29.86,SSE,166,1.0,2.0,97,0.17,,---,0.48,25.00,VWS V14.01,2013-03-12 16:53:00,
2013-03-12 12:55:00,49.9,49.1,29.86,SE,133,0.0,2.0,97,0.17,,---,0.48,19.00,VWS V14.01,2013-03-12 16:55:00,
2013-03-12 12:56:00,49.9,49.1,29.85,ESE,123,0.0,2.0,97,0.17,,---,0.48,19.00,VWS V14.01,2013-03-12 16:56:00,
2013-03-12 12:58:00,49.9,49.1,29.86,SE,136,0.0,2.0,97,0.18,,---,0.49,21.00,VWS V14.01,2013-03-12 16:58:00,
2013-03-12 13:00:00,49.8,49.0,29.85,SE,134,0.0,2.0,97,0.18,,---,0.49,25.00,VWS V14.01,2013-03-12 17:00:00,
2013-03-12 13:02:00,49.8,49.0,29.85,SE,133,0.0,0.0,97,0.16,,---,0.50,23.00,VWS V14.01,2013-03-12 17:02:00,
2013-03-12 13:03:00,49.9,49.1,29.85,SE,133,1.0,1.0,97,0.16,,---,0.50,19.00,VWS V14.01,2013-03-12 17:03:00,
2013-03-12 13:06:00,49.9,49.1,29.85,SE,134,0.0,1.0,97,0.17,,---,0.51,21.00,VWS V14.01,2013-03-12 17:06:00,
2013-03-12 13:07:00,49.9,49.1,29.85,SE,127,1.0,1.0,97,0.17,,---,0.51,21.00,VWS V14.01,2013-03-12 17:07:00,
2013-03-12 13:08:00,49.9,49.1,29.85,SE,127,0.0,1.0,97,0.17,,---,0.51,19.00,VWS V14.01,2013-03-12 17:08:00,
2013-03-12 13:11:00,49.9,49.1,29.85,SSE,155,0.0,1.0,97,0.18,,---,0.52,21.00,VWS V14.01,2013-03-12 17:11:00,
2013-03-12 13:12:00,49.9,49.1,29.84,SSE,155,0.0,0.0,97,0.17,,---,0.53,25.00,VWS V14.01,2013-03-12 17:12:00,
2013-03-12 13:13:00,49.9,49.1,29.84,SSE,155,0.0,0.0,97,0.17,,---,0.53,23.00,VWS V14.01,2013-03-12 17:13:00,
2013-03-12 13:16:00,49.9,49.1,29.84,SE,136,0.0,1.0,97,0.18,,---,0.54,23.00,VWS V14.01,2013-03-12 17:16:00,
2013-03-12 13:17:00,49.9,49.1,29.84,SSE,162,0.0,2.0,97,0.18,,---,0.54,25.00,VWS V14.01,2013-03-12 17:17:00,
2013-03-12 13:18:00,49.9,49.1,29.84,ESE,123,0.0,3.0,97,0.18,,---,0.54,23.00,VWS V14.01,2013-03-12 17:18:00,
2013-03-12 13:21:00,50.0,49.2,29.84,SE,136,0.0,3.0,97,0.19,,---,0.55,26.00,VWS V14.01,2013-03-12 17:21:00,
2013-03-12 13:23:00,50.0,49.2,29.84,SE,136,0.0,0.0,97,0.17,,---,0.55,28.00,VWS V14.01,2013-03-12 17:23:00,
2013-03-12 13:26:00,50.0,49.2,29.84,ESE,119,0.0,2.0,97,0.18,,---,0.56,26.00,VWS V14.01,2013-03-12 17:26:00,
2013-03-12 13:28:00,50.0,49.2,29.84,South,178,0.0,2.0,97,0.18,,---,0.56,26.00,VWS V14.01,2013-03-12 17:28:00,
2013-03-12 13:31:00,50.1,49.3,29.83,South,189,1.0,2.0,97,0.19,,---,0.57,25.00,VWS V14.01,2013-03-12 17:31:00,
2013-03-12 13:33:00,50.1,49.3,29.83,SE,142,0.0,1.0,97,0.17,,---,0.58,23.00,VWS V14.01,2013-03-12 17:33:00,
2013-03-12 13:34:00,50.1,49.3,29.83,SE,127,2.0,2.0,97,0.17,,---,0.58,19.00,VWS V14.01,2013-03-12 17:34:00,
2013-03-12 13:37:00,50.1,49.3,29.83,SE,129,0.0,2.0,97,0.18,,---,0.59,25.00,VWS V14.01,2013-03-12 17:37:00,
2013-03-12 13:38:00,50.1,49.3,29.83,SSE,153,0.0,2.0,97,0.19,,---,0.60,28.00,VWS V14.01,2013-03-12 17:38:00,
2013-03-12 13:39:00,50.2,49.4,29.82,SSE,153,0.0,2.0,97,0.19,,---,0.60,30.00,VWS V14.01,2013-03-12 17:39:00,
2013-03-12 13:42:00,50.2,49.4,29.82,ESE,113,0.0,1.0,97,0.17,,---,0.61,21.00,VWS V14.01,2013-03-12 17:42:00,
2013-03-12 13:43:00,50.2,49.4,29.82,SSE,155,0.0,1.0,97,0.17,,---,0.61,25.00,VWS V14.01,2013-03-12 17:43:00,
2013-03-12 13:44:00,50.2,49.4,29.82,SSE,155,0.0,1.0,97,0.17,,---,0.61,26.00,VWS V14.01,2013-03-12 17:44:00,
2013-03-12 13:48:00,50.1,49.3,29.82,South,170,0.0,2.0,97,0.18,,---,0.62,26.00,VWS V14.01,2013-03-12 17:48:00,
2013-03-12 13:49:00,50.1,49.3,29.82,SE,146,0.0,2.0,97,0.19,,---,0.63,26.00,VWS V14.01,2013-03-12 17:49:00,
2013-03-12 13:53:00,50.2,49.4,29.81,South,175,0.0,0.0,97,0.17,,---,0.64,21.00,VWS V14.01,2013-03-12 17:53:00,
2013-03-12 13:54:00,50.2,49.4,29.81,SSE,163,1.0,1.0,97,0.17,,---,0.64,21.00,VWS V14.01,2013-03-12 17:54:00,
2013-03-12 13:58:00,50.2,49.4,29.81,SSE,167,1.0,2.0,97,0.19,,---,0.66,21.00,VWS V14.01,2013-03-12 17:58:00,
2013-03-12 13:59:00,50.2,49.4,29.81,South,178,0.0,2.0,97,0.19,,---,0.66,21.00,VWS V14.01,2013-03-12 17:59:00,
2013-03-12 14:03:00,50.2,49.4,29.80,South,186,1.0,3.0,97,0.18,,---,0.68,23.00,VWS V14.01,2013-03-12 18:03:00,
2013-03-12 14:04:00,50.3,49.8,29.80,South,186,1.0,3.0,98,0.19,,---,0.69,21.00,VWS V14.01,2013-03-12 18:04:00,
2013-03-12 14:08:00,50.3,49.8,29.80,South,182,0.0,4.0,98,0.20,,---,0.70,23.00,VWS V14.01,2013-03-12 18:08:00,
2013-03-12 14:09:00,50.3,49.8,29.80,SSE,165,0.0,4.0,98,0.21,,---,0.71,23.00,VWS V14.01,2013-03-12 18:09:00,
2013-03-12 14:13:00,50.4,49.9,29.79,South,173,1.0,1.0,98,0.20,,---,0.73,19.00,VWS V14.01,2013-03-12 18:13:00,
2013-03-12 14:14:00,50.4,49.9,29.79,SSW,205,2.0,3.0,98,0.21,,---,0.74,18.00,VWS V14.01,2013-03-12 18:14:00,
2013-03-12 14:18:00,50.4,49.9,29.79,South,177,0.0,3.0,98,0.22,,---,0.75,14.00,VWS V14.01,2013-03-12 18:18:00,
2013-03-12 14:19:00,50.4,49.9,29.79,South,190,1.0,3.0,98,0.22,,---,0.75,14.00,VWS V14.01,2013-03-12 18:19:00,
2013-03-12 14:20:00,50.3,49.8,29.79,SSW,198,2.0,3.0,98,0.23,,---,0.76,18.00,VWS V14.01,2013-03-12 18:20:00,
2013-03-12 14:24:00,50.4,49.9,29.79,SSE,150,0.0,2.0,98,0.23,,---,0.78,18.00,VWS V14.01,2013-03-12 18:24:00,
2013-03-12 14:25:00,50.4,49.9,29.79,SSE,156,1.0,2.0,98,0.23,,---,0.78,18.00,VWS V14.01,2013-03-12 18:25:00,
2013-03-12 14:29:00,50.5,50.0,29.78,SSE,153,1.0,5.0,98,0.25,,---,0.80,12.00,VWS V14.01,2013-03-12 18:29:00,
2013-03-12 14:30:00,50.5,50.0,29.78,SSE,167,0.0,5.0,98,0.25,,---,0.80,12.00,VWS V14.01,2013-03-12 18:30:00,
2013-03-12 14:34:00,50.5,50.0,29.77,SSE,165,0.0,3.0,98,0.24,,---,0.82,12.00,VWS V14.01,2013-03-12 18:34:00,
2013-03-12 14:35:00,50.5,50.0,29.77,SSW,201,2.0,3.0,98,0.24,,---,0.82,14.00,VWS V14.01,2013-03-12 18:35:00,
2013-03-12 14:39:00,50.5,50.0,29.77,South,186,1.0,4.0,98,0.27,,---,0.85,12.00,VWS V14.01,2013-03-12 18:39:00,
2013-03-12 14:40:00,50.5,50.0,29.77,SSE,157,1.0,4.0,98,0.27,,---,0.85,16.00,VWS V14.01,2013-03-12 18:40:00,
2013-03-12 14:44:00,50.6,49.8,29.76,ESE,120,0.0,3.0,97,0.27,,---,0.88,16.00,VWS V14.01,2013-03-12 18:44:00,
2013-03-12 14:45:00,50.6,49.8,29.76,SE,124,1.0,3.0,97,0.27,,---,0.88,16.00,VWS V14.01,2013-03-12 18:45:00,
2013-03-12 14:49:00,50.6,49.8,29.77,South,184,1.0,3.0,97,0.29,,---,0.90,14.00,VWS V14.01,2013-03-12 18:49:00,
2013-03-12 14:50:00,50.6,49.8,29.77,South,184,0.0,3.0,97,0.29,,---,0.90,14.00,VWS V14.01,2013-03-12 18:50:00,
2013-03-12 14:55:00,50.7,49.9,29.76,SSE,168,0.0,2.0,97,0.29,,---,0.93,14.00,VWS V14.01,2013-03-12 18:55:00,
2013-03-12 15:00:00,50.7,49.9,29.76,SSE,159,1.0,2.0,97,0.32,,---,0.96,14.00,VWS V14.01,2013-03-12 19:00:00,
2013-03-12 15:05:00,50.8,50.0,29.75,SE,132,0.0,4.0,97,0.30,,---,0.98,18.00,VWS V14.01,2013-03-12 19:05:00,
2013-03-12 15:10:00,50.9,50.4,29.75,SSE,164,2.0,4.0,98,0.32,,---,1.00,23.00,VWS V14.01,2013-03-12 19:10:00,
2013-03-12 15:11:00,50.9,50.4,29.74,SSE,164,0.0,4.0,98,0.33,,---,1.01,21.00,VWS V14.01,2013-03-12 19:11:00,
2013-03-12 15:15:00,51.0,50.5,29.74,SE,136,2.0,3.0,98,0.29,,---,1.02,23.00,VWS V14.01,2013-03-12 19:15:00,
2013-03-12 15:16:00,51.0,50.5,29.74,SSW,195,1.0,3.0,98,0.29,,---,1.02,21.00,VWS V14.01,2013-03-12 19:16:00,
2013-03-12 15:20:00,51.1,50.6,29.74,ESE,121,0.0,3.0,98,0.31,,---,1.04,26.00,VWS V14.01,2013-03-12 19:20:00,
2013-03-12 15:21:00,51.0,50.5,29.74,ESE,123,1.0,3.0,98,0.31,,---,1.04,26.00,VWS V14.01,2013-03-12 19:21:00,
2013-03-12 15:25:00,51.1,50.6,29.73,South,176,0.0,2.0,98,0.29,,---,1.06,18.00,VWS V14.01,2013-03-12 19:25:00,
2013-03-12 15:26:00,51.1,50.6,29.73,South,175,0.0,2.0,98,0.30,,---,1.07,18.00,VWS V14.01,2013-03-12 19:26:00,
2013-03-12 15:30:00,51.2,50.7,29.73,South,182,0.0,3.0,98,0.31,,---,1.08,16.00,VWS V14.01,2013-03-12 19:30:00,
2013-03-12 15:31:00,51.2,50.7,29.73,ESE,103,1.0,3.0,98,0.32,,---,1.09,19.00,VWS V14.01,2013-03-12 19:31:00,
2013-03-12 15:32:00,51.2,50.4,29.72,SSE,153,0.0,3.0,97,0.32,,---,1.09,19.00,VWS V14.01,2013-03-12 19:32:00,
2013-03-12 15:35:00,51.2,50.4,29.72,SSE,165,0.0,2.0,97,0.29,,---,1.10,25.00,VWS V14.01,2013-03-12 19:35:00,
2013-03-12 15:36:00,51.3,50.5,29.72,SSE,159,1.0,2.0,97,0.29,,---,1.10,21.00,VWS V14.01,2013-03-12 19:36:00,
2013-03-12 15:37:00,51.3,50.5,29.72,SSW,193,1.0,2.0,97,0.29,,---,1.10,19.00,VWS V14.01,2013-03-12 19:37:00,
2013-03-12 15:40:00,51.3,50.5,29.72,SSW,202,0.0,3.0,97,0.30,,---,1.11,16.00,VWS V14.01,2013-03-12 19:40:00,
2013-03-12 15:41:00,51.3,50.5,29.72,ESE,115,1.0,3.0,97,0.30,,---,1.11,16.00,VWS V14.01,2013-03-12 19:41:00,
2013-03-12 15:42:00,51.3,50.5,29.72,SSW,205,0.0,3.0,97,0.30,,---,1.11,16.00,VWS V14.01,2013-03-12 19:42:00,
2013-03-12 15:45:00,51.3,50.5,29.71,SSE,167,1.0,2.0,97,0.26,,---,1.12,25.00,VWS V14.01,2013-03-12 19:45:00,
2013-03-12 15:46:00,51.3,50.5,29.71,SSE,167,0.0,2.0,97,0.26,,---,1.12,25.00,VWS V14.01,2013-03-12 19:46:00,
2013-03-12 15:47:00,51.3,50.5,29.71,South,190,0.0,2.0,97,0.26,,---,1.12,19.00,VWS V14.01,2013-03-12 19:47:00,
2013-03-12 15:50:00,51.4,50.6,29.71,South,171,0.0,2.0,97,0.26,,---,1.12,16.00,VWS V14.01,2013-03-12 19:50:00,
2013-03-12 15:51:00,51.4,50.6,29.71,South,171,0.0,2.0,97,0.26,,---,1.12,12.00,VWS V14.01,2013-03-12 19:51:00,
2013-03-12 15:52:00,51.4,50.6,29.71,SSE,147,0.0,0.0,97,0.21,,---,1.12,12.00,VWS V14.01,2013-03-12 19:52:00,
2013-03-12 15:56:00,51.4,50.6,29.71,SSE,167,1.0,5.0,97,0.22,,---,1.13,12.00,VWS V14.01,2013-03-12 19:56:00,
2013-03-12 15:57:00,51.4,50.6,29.71,SSW,192,1.0,5.0,97,0.22,,---,1.13,11.00,VWS V14.01,2013-03-12 19:57:00,
2013-03-12 15:58:00,51.4,50.6,29.71,SE,142,3.0,5.0,97,0.23,,---,1.14,12.00,VWS V14.01,2013-03-12 19:58:00,
2013-03-12 16:01:00,51.4,50.6,29.71,SSE,157,0.0,5.0,97,0.25,,---,1.16,16.00,VWS V14.01,2013-03-12 20:01:00,
2013-03-12 16:02:00,51.4,50.6,29.70,SSE,148,0.0,0.0,97,0.20,,---,1.17,19.00,VWS V14.01,2013-03-12 20:02:00,
2013-03-12 16:03:00,51.4,50.6,29.70,SE,128,0.0,1.0,97,0.20,,---,1.17,18.00,VWS V14.01,2013-03-12 20:03:00,
2013-03-12 16:06:00,51.5,50.7,29.70,SSE,159,0.0,5.0,97,0.22,,---,1.19,12.00,VWS V14.01,2013-03-12 20:06:00,
2013-03-12 16:07:00,51.5,50.7,29.70,SSE,155,0.0,5.0,97,0.23,,---,1.20,11.00,VWS V14.01,2013-03-12 20:07:00,
2013-03-12 16:08:00,51.5,50.7,29.70,SSE,155,0.0,5.0,97,0.24,,---,1.21,11.00,VWS V14.01,2013-03-12 20:08:00,
2013-03-12 16:11:00,51.5,50.7,29.70,ESE,123,0.0,5.0,97,0.25,,---,1.22,7.00,VWS V14.01,2013-03-12 20:11:00,
2013-03-12 16:12:00,51.4,50.6,29.70,South,172,1.0,1.0,97,0.21,,---,1.22,9.00,VWS V14.01,2013-03-12 20:12:00,
2013-03-12 16:13:00,51.4,50.6,29.70,SSE,165,0.0,1.0,97,0.22,,---,1.23,9.00,VWS V14.01,2013-03-12 20:13:00,
2013-03-12 16:14:00,51.4,50.6,29.70,SE,142,1.0,2.0,97,0.23,,---,1.24,9.00,VWS V14.01,2013-03-12 20:14:00,
2013-03-12 16:16:00,51.4,50.6,29.70,South,172,0.0,2.0,97,0.25,,---,1.26,11.00,VWS V14.01,2013-03-12 20:16:00,
2013-03-12 16:17:00,51.5,50.7,29.70,South,172,0.0,2.0,97,0.26,,---,1.27,11.00,VWS V14.01,2013-03-12 20:17:00,
2013-03-12 16:18:00,51.5,50.7,29.70,South,171,0.0,2.0,97,0.26,,---,1.27,11.00,VWS V14.01,2013-03-12 20:18:00,
2013-03-12 16:19:00,51.5,50.7,29.70,South,171,0.0,2.0,97,0.27,,---,1.28,9.00,VWS V14.01,2013-03-12 20:19:00,
2013-03-12 16:22:00,51.5,50.7,29.69,WSW,244,0.0,2.0,97,0.29,,---,1.30,11.00,VWS V14.01,2013-03-12 20:22:00,
2013-03-12 16:23:00,51.4,50.6,29.69,SSW,202,1.0,2.0,97,0.26,,---,1.31,11.00,VWS V14.01,2013-03-12 20:23:00,
2013-03-12 16:24:00,51.4,50.6,29.69,SE,138,0.0,2.0,97,0.27,,---,1.32,11.00,VWS V14.01,2013-03-12 20:24:00,
2013-03-12 16:27:00,51.4,50.6,29.69,SSE,165,1.0,2.0,97,0.27,,---,1.32,11.00,VWS V14.01,2013-03-12 20:27:00,
2013-03-12 16:28:00,51.4,50.6,29.69,SE,142,1.0,2.0,97,0.28,,---,1.33,11.00,VWS V14.01,2013-03-12 20:28:00,
2013-03-12 16:29:00,51.4,50.6,29.69,SSW,204,1.0,2.0,97,0.29,,---,1.34,11.00,VWS V14.01,2013-03-12 20:29:00,
2013-03-12 16:32:00,51.4,50.6,29.69,SE,145,1.0,1.0,97,0.26,,---,1.35,11.00,VWS V14.01,2013-03-12 20:32:00,
2013-03-12 16:33:00,51.4,50.6,29.69,SW,225,0.0,3.0,97,0.27,,---,1.36,12.00,VWS V14.01,2013-03-12 20:33:00,
2013-03-12 16:34:00,51.4,50.6,29.69,SW,220,0.0,3.0,97,0.28,,---,1.37,14.00,VWS V14.01,2013-03-12 20:34:00,
2013-03-12 16:38:00,51.4,50.6,29.69,SSW,195,0.0,3.0,97,0.30,,---,1.39,14.00,VWS V14.01,2013-03-12 20:38:00,
2013-03-12 16:39:00,51.4,50.6,29.69,SE,143,1.0,8.0,97,0.31,,---,1.40,11.00,VWS V14.01,2013-03-12 20:39:00,
2013-03-12 16:43:00,51.7,51.2,29.69,South,187,0.0,0.0,98,0.31,,---,1.42,12.00,VWS V14.01,2013-03-12 20:43:00,
2013-03-12 16:44:00,51.7,51.2,29.69,South,183,0.0,1.0,98,0.33,,---,1.44,9.00,VWS V14.01,2013-03-12 20:44:00,
2013-03-12 16:48:00,51.7,51.2,29.69,WNW,292,0.0,1.0,98,0.35,,---,1.46,12.00,VWS V14.01,2013-03-12 20:48:00,
2013-03-12 16:49:00,51.7,51.2,29.69,WNW,292,1.0,1.0,98,0.36,,---,1.47,12.00,VWS V14.01,2013-03-12 20:49:00,
2013-03-12 16:53:00,51.8,51.3,29.68,SSE,157,0.0,1.0,98,0.38,,---,1.50,26.00,VWS V14.01,2013-03-12 20:53:00,
2013-03-12 16:54:00,51.9,51.4,29.68,SSW,204,1.0,2.0,98,0.39,,---,1.51,26.00,VWS V14.01,2013-03-12 20:54:00,
2013-03-12 16:55:00,51.9,51.4,29.68,SSW,204,0.0,2.0,98,0.39,,---,1.51,26.00,VWS V14.01,2013-03-12 20:55:00,
2013-03-12 16:58:00,51.9,51.4,29.68,SE,142,0.0,3.0,98,0.40,,---,1.52,25.00,VWS V14.01,2013-03-12 20:58:00,
2013-03-12 16:59:00,52.0,51.5,29.68,SE,142,1.0,3.0,98,0.40,,---,1.52,30.00,VWS V14.01,2013-03-12 20:59:00,
2013-03-12 17:00:00,52.0,51.5,29.68,SSW,208,0.0,3.0,98,0.41,,---,1.53,35.00,VWS V14.01,2013-03-12 21:00:00,
2013-03-12 17:03:00,52.1,51.5,29.68,SW,227,1.0,4.0,98,0.36,,---,1.53,56.00,VWS V14.01,2013-03-12 21:03:00,
2013-03-12 17:04:00,52.1,51.5,29.68,SE,136,0.0,4.0,98,0.36,,---,1.53,62.00,VWS V14.01,2013-03-12 21:04:00,
2013-03-12 17:05:00,52.2,51.7,29.68,South,175,0.0,4.0,98,0.36,,---,1.53,65.00,VWS V14.01,2013-03-12 21:05:00,
2013-03-12 17:08:00,52.4,51.8,29.68,SSW,198,0.0,4.0,98,0.37,,---,1.54,39.00,VWS V14.01,2013-03-12 21:08:00,
2013-03-12 17:09:00,52.4,51.8,29.68,South,190,0.0,4.0,98,0.37,,---,1.54,39.00,VWS V14.01,2013-03-12 21:09:00,
2013-03-12 17:10:00,52.5,52.0,29.68,South,190,0.0,4.0,98,0.37,,---,1.54,37.00,VWS V14.01,2013-03-12 21:10:00,
2013-03-12 17:14:00,52.5,52.0,29.67,WSW,250,0.0,2.0,98,0.33,,---,1.55,26.00,VWS V14.01,2013-03-12 21:14:00,
2013-03-12 17:15:00,52.5,52.0,29.68,WSW,238,1.0,3.0,98,0.33,,---,1.55,30.00,VWS V14.01,2013-03-12 21:15:00,
2013-03-12 17:19:00,52.5,52.0,29.67,East,92,1.0,3.0,98,0.34,,---,1.56,25.00,VWS V14.01,2013-03-12 21:19:00,
2013-03-12 17:20:00,52.6,52.0,29.67,SSW,210,2.0,4.0,98,0.34,,---,1.56,23.00,VWS V14.01,2013-03-12 21:20:00,
2013-03-12 17:24:00,52.7,52.2,29.67,SE,125,0.0,3.0,98,0.26,,---,1.56,14.00,VWS V14.01,2013-03-12 21:24:00,
2013-03-12 17:25:00,52.7,52.2,29.67,SSW,207,0.0,3.0,98,0.27,,---,1.57,12.00,VWS V14.01,2013-03-12 21:25:00,
2013-03-12 17:29:00,52.6,52.0,29.68,SW,224,2.0,3.0,98,0.27,,---,1.57,9.00,VWS V14.01,2013-03-12 21:29:00,
2013-03-12 17:30:00,52.6,52.0,29.68,SW,232,3.0,3.0,98,0.27,,---,1.57,9.00,VWS V14.01,2013-03-12 21:30:00,
2013-03-12 17:34:00,52.5,52.0,29.67,South,190,1.0,4.0,98,0.22,,---,1.57,9.00,VWS V14.01,2013-03-12 21:34:00,
2013-03-12 17:35:00,52.5,52.0,29.67,NW,311,3.0,4.0,98,0.22,,---,1.57,9.00,VWS V14.01,2013-03-12 21:35:00,
2013-03-12 17:39:00,52.4,51.8,29.67,WSW,253,1.0,6.0,98,0.22,,---,1.57,11.00,VWS V14.01,2013-03-12 21:39:00,
2013-03-12 17:40:00,52.4,51.8,29.67,WSW,253,0.0,6.0,98,0.22,,---,1.57,11.00,VWS V14.01,2013-03-12 21:40:00,
2013-03-12 17:41:00,52.4,51.8,29.67,South,173,1.0,6.0,98,0.22,,---,1.57,9.00,VWS V14.01,2013-03-12 21:41:00,
2013-03-12 17:44:00,52.3,51.8,29.67,South,184,1.0,4.0,98,0.16,,---,1.57,9.00,VWS V14.01,2013-03-12 21:44:00,
2013-03-12 17:45:00,52.3,51.8,29.67,SSW,193,1.0,4.0,98,0.16,,---,1.57,9.00,VWS V14.01,2013-03-12 21:45:00,
2013-03-12 17:46:00,52.3,51.8,29.67,SSW,208,2.0,4.0,98,0.16,,---,1.57,11.00,VWS V14.01,2013-03-12 21:46:00,
2013-03-12 17:50:00,52.2,51.7,29.67,SSW,195,0.0,6.0,98,0.16,,---,1.57,7.00,VWS V14.01,2013-03-12 21:50:00,
2013-03-12 17:51:00,52.2,51.7,29.67,SW,227,3.0,6.0,98,0.16,,---,1.57,7.00,VWS V14.01,2013-03-12 21:51:00,
2013-03-12 17:55:00,52.1,51.3,29.67,SW,217,1.0,3.0,97,0.08,,---,1.57,9.00,VWS V14.01,2013-03-12 21:55:00,
2013-03-12 17:56:00,52.1,51.3,29.68,SW,220,0.0,3.0,97,0.08,,---,1.57,11.00,VWS V14.01,2013-03-12 21:56:00,
2013-03-12 18:00:00,52.0,51.2,29.67,SW,219,0.0,3.0,97,0.08,,---,1.57,9.00,VWS V14.01,2013-03-12 22:00:00,
2013-03-12 18:01:00,51.9,51.1,29.67,SSW,195,0.0,3.0,97,0.08,,---,1.57,9.00,VWS V14.01,2013-03-12 22:01:00,
2013-03-12 18:05:00,51.9,51.1,29.67,SSW,198,0.0,2.0,97,0.04,,---,1.57,7.00,VWS V14.01,2013-03-12 22:05:00,
2013-03-12 18:06:00,51.8,51.0,29.68,WSW,238,2.0,3.0,97,0.04,,---,1.57,9.00,VWS V14.01,2013-03-12 22:06:00,
2013-03-12 18:10:00,51.8,51.0,29.68,SW,228,0.0,3.0,97,0.04,,---,1.57,9.00,VWS V14.01,2013-03-12 22:10:00,
2013-03-12 18:12:00,51.8,51.0,29.68,SW,228,0.0,3.0,97,0.04,,---,1.57,7.00,VWS V14.01,2013-03-12 22:12:00,
2013-03-12 18:15:00,51.7,50.9,29.68,SW,229,0.0,2.0,97,0.03,,---,1.57,7.00,VWS V14.01,2013-03-12 22:15:00,
2013-03-12 18:17:00,51.7,50.9,29.68,NNE,20,3.0,3.0,97,0.03,,---,1.57,9.00,VWS V14.01,2013-03-12 22:17:00,
2013-03-12 18:20:00,51.6,50.8,29.68,SW,236,3.0,3.0,97,0.04,,---,1.58,9.00,VWS V14.01,2013-03-12 22:20:00,
2013-03-12 18:21:00,51.6,50.8,29.68,SW,236,0.0,3.0,97,0.04,,---,1.58,9.00,VWS V14.01,2013-03-12 22:21:00,
2013-03-12 18:22:00,51.6,50.8,29.69,West,265,2.0,4.0,97,0.04,,---,1.58,7.00,VWS V14.01,2013-03-12 22:22:00,
2013-03-12 18:25:00,51.5,50.7,29.69,SSE,159,0.0,5.0,97,0.02,,---,1.58,5.00,VWS V14.01,2013-03-12 22:25:00,
2013-03-12 18:26:00,51.4,50.6,29.69,South,188,1.0,5.0,97,0.02,,---,1.58,5.00,VWS V14.01,2013-03-12 22:26:00,
2013-03-12 18:27:00,51.4,50.6,29.69,South,188,0.0,5.0,97,0.02,,---,1.58,7.00,VWS V14.01,2013-03-12 22:27:00,
2013-03-12 18:30:00,51.4,50.6,29.69,South,172,0.0,5.0,97,0.02,,---,1.58,9.00,VWS V14.01,2013-03-12 22:30:00,
2013-03-12 18:32:00,51.3,50.5,29.69,South,172,1.0,5.0,97,0.02,,---,1.58,7.00,VWS V14.01,2013-03-12 22:32:00,
2013-03-12 18:35:00,51.2,50.4,29.68,WSW,238,1.0,2.0,97,0.01,,---,1.58,0.00,VWS V14.01,2013-03-12 22:35:00,
2013-03-12 18:37:00,51.3,50.5,29.68,SW,230,0.0,2.0,97,0.01,,---,1.58,0.00,VWS V14.01,2013-03-12 22:37:00,
2013-03-12 18:41:00,51.2,50.4,29.69,SW,228,0.0,3.0,97,0.01,,---,1.58,0.00,VWS V14.01,2013-03-12 22:41:00,
2013-03-12 18:42:00,51.2,50.4,29.69,SSW,193,1.0,3.0,97,0.01,,---,1.58,0.00,VWS V14.01,2013-03-12 22:42:00,
2013-03-12 18:46:00,51.2,50.4,29.69,SSW,192,0.0,1.0,97,0.01,,---,1.58,0.00,VWS V14.01,2013-03-12 22:46:00,
2013-03-12 18:47:00,51.1,50.3,29.69,SSW,192,0.0,1.0,97,0.01,,---,1.58,0.00,VWS V14.01,2013-03-12 22:47:00,
2013-03-12 18:51:00,51.0,50.2,29.69,SSW,192,0.0,1.0,97,0.01,,---,1.58,0.00,VWS V14.01,2013-03-12 22:51:00,
2013-03-12 18:52:00,51.0,50.2,29.70,SSW,192,0.0,1.0,97,0.01,,---,1.58,0.00,VWS V14.01,2013-03-12 22:52:00,
2013-03-12 18:53:00,51.0,50.2,29.70,SSW,196,0.0,2.0,97,0.01,,---,1.58,0.00,VWS V14.01,2013-03-12 22:53:00,
2013-03-12 18:57:00,51.0,50.2,29.70,SSW,196,0.0,2.0,97,0.01,,---,1.58,0.00,VWS V14.01,2013-03-12 22:57:00,
2013-03-12 18:59:00,50.9,50.1,29.70,SSW,196,0.0,2.0,97,0.01,,---,1.58,0.00,VWS V14.01,2013-03-12 22:59:00,
2013-03-12 19:02:00,50.9,50.1,29.70,SSW,196,0.0,2.0,97,0.01,,---,1.58,0.00,VWS V14.01,2013-03-12 23:02:00,
2013-03-12 19:03:00,50.9,50.1,29.70,SSW,196,0.0,0.0,97,0.01,,---,1.58,0.00,VWS V14.01,2013-03-12 23:03:00,
2013-03-12 19:04:00,50.8,50.0,29.70,SSW,196,0.0,0.0,97,0.01,,---,1.58,0.00,VWS V14.01,2013-03-12 23:04:00,
2013-03-12 19:07:00,50.8,50.0,29.71,SW,221,0.0,3.0,97,0.01,,---,1.58,0.00,VWS V14.01,2013-03-12 23:07:00,
2013-03-12 19:08:00,50.8,50.0,29.71,SW,221,1.0,3.0,97,0.01,,---,1.58,0.00,VWS V14.01,2013-03-12 23:08:00,
2013-03-12 19:09:00,50.8,50.0,29.71,SSW,207,0.0,3.0,97,0.01,,---,1.58,0.00,VWS V14.01,2013-03-12 23:09:00,
2013-03-12 19:12:00,50.7,49.9,29.71,SSW,209,1.0,3.0,97,0.01,,---,1.58,0.00,VWS V14.01,2013-03-12 23:12:00,
2013-03-12 19:13:00,50.7,49.9,29.71,SW,234,2.0,3.0,97,0.01,,---,1.58,0.00,VWS V14.01,2013-03-12 23:13:00,
2013-03-12 19:14:00,50.7,49.9,29.71,SW,234,0.0,3.0,97,0.01,,---,1.58,0.00,VWS V14.01,2013-03-12 23:14:00,
2013-03-12 19:17:00,50.6,49.8,29.71,South,169,0.0,3.0,97,0.01,,---,1.58,0.00,VWS V14.01,2013-03-12 23:17:00,
2013-03-12 19:18:00,50.6,49.8,29.71,South,169,0.0,3.0,97,0.01,,---,1.58,0.00,VWS V14.01,2013-03-12 23:18:00,
2013-03-12 19:19:00,50.6,49.8,29.71,South,169,0.0,3.0,97,0.01,,---,1.58,0.00,VWS V14.01,2013-03-12 23:19:00,
2013-03-12 19:22:00,50.5,49.7,29.71,South,169,0.0,3.0,97,0.01,,---,1.58,0.00,VWS V14.01,2013-03-12 23:22:00,
2013-03-12 19:23:00,50.5,49.7,29.71,South,169,0.0,0.0,97,0.00,,---,1.58,0.00,VWS V14.01,2013-03-12 23:23:00,
2013-03-12 19:24:00,50.5,49.7,29.72,South,170,0.0,1.0,97,0.00,,---,1.58,0.00,VWS V14.01,2013-03-12 23:24:00,
2013-03-12 19:25:00,50.5,49.7,29.72,South,170,0.0,1.0,97,0.00,,---,1.58,0.00,VWS V14.01,2013-03-12 23:25:00,
2013-03-12 19:28:00,50.5,49.7,29.72,South,183,0.0,1.0,97,0.00,,---,1.58,0.00,VWS V14.01,2013-03-12 23:28:00,
2013-03-12 19:29:00,50.5,49.7,29.72,South,183,1.0,1.0,97,0.00,,---,1.58,0.00,VWS V14.01,2013-03-12 23:29:00,
2013-03-12 19:30:00,50.5,49.7,29.72,South,183,0.0,1.0,97,0.00,,---,1.58,0.00,VWS V14.01,2013-03-12 23:30:00,
2013-03-12 19:33:00,50.5,49.7,29.72,South,183,0.0,0.0,97,0.00,,---,1.58,0.00,VWS V14.01,2013-03-12 23:33:00,
2013-03-12 19:34:00,50.5,49.7,29.72,South,183,0.0,2.0,97,0.00,,---,1.58,0.00,VWS V14.01,2013-03-12 23:34:00,
2013-03-12 19:35:00,50.5,49.7,29.72,South,183,0.0,2.0,97,0.00,,---,1.58,0.00,VWS V14.01,2013-03-12 23:35:00,
2013-03-12 19:38:00,50.4,49.6,29.72,South,183,0.0,2.0,97,0.00,,---,1.58,0.00,VWS V14.01,2013-03-12 23:38:00,
2013-03-12 19:39:00,50.5,49.7,29.72,South,183,0.0,2.0,97,0.00,,---,1.58,0.00,VWS V14.01,2013-03-12 23:39:00,
2013-03-12 19:40:00,50.4,49.6,29.72,South,183,0.0,2.0,97,0.00,,---,1.58,0.00,VWS V14.01,2013-03-12 23:40:00,
2013-03-12 19:43:00,50.4,49.6,29.72,South,183,0.0,0.0,97,0.00,,---,1.58,0.00,VWS V14.01,2013-03-12 23:43:00,
2013-03-12 19:44:00,50.4,49.6,29.72,South,183,0.0,0.0,97,0.00,,---,1.58,0.00,VWS V14.01,2013-03-12 23:44:00,
2013-03-12 19:45:00,50.4,49.6,29.72,WSW,245,0.0,1.0,97,0.00,,---,1.58,0.00,VWS V14.01,2013-03-12 23:45:00,
2013-03-12 19:48:00,50.3,49.5,29.72,WSW,245,0.0,1.0,97,0.00,,---,1.58,0.00,VWS V14.01,2013-03-12 23:48:00,
2013-03-12 19:50:00,50.3,49.5,29.72,WSW,245,0.0,1.0,97,0.00,,---,1.58,0.00,VWS V14.01,2013-03-12 23:50:00,
2013-03-12 19:53:00,50.2,49.4,29.72,SSW,196,0.0,0.0,97,0.00,,---,1.58,0.00,VWS V14.01,2013-03-12 23:53:00,
2013-03-12 19:54:00,50.2,49.4,29.72,SSW,196,0.0,0.0,97,0.00,,---,1.58,0.00,VWS V14.01,2013-03-12 23:54:00,
2013-03-12 19:55:00,50.1,49.3,29.73,SSW,196,0.0,0.0,97,0.00,,---,1.58,0.00,VWS V14.01,2013-03-12 23:55:00,
2013-03-12 19:58:00,50.0,49.2,29.73,SSW,196,0.0,1.0,97,0.00,,---,1.58,0.00,VWS V14.01,2013-03-12 23:58:00,
2013-03-12 19:59:00,49.9,49.1,29.73,SSW,196,0.0,1.0,97,0.00,,---,1.58,0.00,VWS V14.01,2013-03-12 23:59:00,
2013-03-12 20:00:00,49.8,49.0,29.73,SSW,196,1.0,2.0,97,0.00,,---,1.58,0.00,VWS V14.01,2013-03-13 00:00:00,
2013-03-12 20:03:00,49.7,48.9,29.73,SSW,212,0.0,1.0,97,0.00,,---,1.58,0.00,VWS V14.01,2013-03-13 00:03:00,
2013-03-12 20:04:00,49.7,48.9,29.73,WSW,240,0.0,1.0,97,0.00,,---,1.58,0.00,VWS V14.01,2013-03-13 00:04:00,
2013-03-12 20:05:00,49.6,48.8,29.73,WSW,244,0.0,1.0,97,0.00,,---,1.58,0.00,VWS V14.01,2013-03-13 00:05:00,
2013-03-12 20:08:00,49.5,48.7,29.73,WSW,245,0.0,1.0,97,0.00,,---,1.58,0.00,VWS V14.01,2013-03-13 00:08:00,
2013-03-12 20:09:00,49.5,48.7,29.73,WSW,245,0.0,1.0,97,0.00,,---,1.58,0.00,VWS V14.01,2013-03-13 00:09:00,
2013-03-12 20:10:00,49.4,48.6,29.73,WSW,245,0.0,1.0,97,0.00,,---,1.58,0.00,VWS V14.01,2013-03-13 00:10:00,
2013-03-12 20:14:00,49.3,48.5,29.73,NNW,329,0.0,1.0,97,0.00,,---,1.58,0.00,VWS V14.01,2013-03-13 00:14:00,
2013-03-12 20:15:00,49.2,48.4,29.73,NNE,17,2.0,2.0,97,0.00,,---,1.58,0.00,VWS V14.01,2013-03-13 00:15:00,
2013-03-12 20:16:00,49.2,48.4,29.73,NW,305,2.0,3.0,97,0.00,,---,1.58,0.00,VWS V14.01,2013-03-13 00:16:00,
2013-03-12 20:19:00,49.1,48.3,29.73,NNW,332,0.0,3.0,97,0.00,,---,1.58,0.00,VWS V14.01,2013-03-13 00:19:00,
2013-03-12 20:21:00,49.0,48.2,29.73,SW,227,0.0,3.0,97,0.00,,---,1.58,0.00,VWS V14.01,2013-03-13 00:21:00,
2013-03-12 20:24:00,48.9,48.1,29.73,SW,228,0.0,0.0,97,0.00,,---,1.58,0.00,VWS V14.01,2013-03-13 00:24:00,
2013-03-12 20:26:00,48.8,48.0,29.73,NW,325,0.0,1.0,97,0.00,,---,1.58,0.00,VWS V14.01,2013-03-13 00:26:00,
2013-03-12 20:29:00,48.7,47.6,29.73,SW,232,0.0,3.0,96,0.00,,---,1.58,0.00,VWS V14.01,2013-03-13 00:29:00,
2013-03-12 20:30:00,48.6,47.5,29.73,SW,232,0.0,3.0,96,0.00,,---,1.58,0.00,VWS V14.01,2013-03-13 00:30:00,
2013-03-12 20:31:00,48.6,47.5,29.73,SW,232,0.0,3.0,96,0.00,,---,1.58,0.00,VWS V14.01,2013-03-13 00:31:00,
2013-03-12 20:34:00,48.5,47.4,29.73,West,265,0.0,0.0,96,0.00,,---,1.58,0.00,VWS V14.01,2013-03-13 00:34:00,
2013-03-12 20:35:00,48.4,47.3,29.73,West,265,0.0,0.0,96,0.00,,---,1.58,0.00,VWS V14.01,2013-03-13 00:35:00,
2013-03-12 20:36:00,48.4,47.3,29.73,NNW,335,0.0,1.0,96,0.00,,---,1.58,0.00,VWS V14.01,2013-03-13 00:36:00,
2013-03-12 20:39:00,48.3,46.9,29.73,NNW,335,0.0,1.0,95,0.00,,---,1.58,0.00,VWS V14.01,2013-03-13 00:39:00,
2013-03-12 20:40:00,48.3,46.9,29.73,NNW,335,0.0,1.0,95,0.00,,---,1.58,0.00,VWS V14.01,2013-03-13 00:40:00,
2013-03-12 20:42:00,48.2,46.8,29.73,WNW,292,0.0,2.0,95,0.00,,---,1.58,0.00,VWS V14.01,2013-03-13 00:42:00,
2013-03-12 20:44:00,48.2,46.8,29.74,SW,232,2.0,2.0,95,0.00,,---,1.58,0.00,VWS V14.01,2013-03-13 00:44:00,
2013-03-12 20:45:00,48.2,46.8,29.74,NW,315,0.0,4.0,95,0.00,,---,1.58,0.00,VWS V14.01,2013-03-13 00:45:00,
2013-03-12 20:47:00,48.1,46.5,29.74,WNW,298,0.0,4.0,94,0.00,,---,1.58,0.00,VWS V14.01,2013-03-13 00:47:00,
2013-03-12 20:49:00,48.1,46.2,29.74,NNW,344,0.0,4.0,93,0.00,,---,1.58,0.00,VWS V14.01,2013-03-13 00:49:00,
2013-03-12 20:50:00,48.1,46.2,29.74,NNW,344,0.0,4.0,93,0.00,,---,1.58,0.00,VWS V14.01,2013-03-13 00:50:00,
2013-03-12 20:52:00,48.1,46.2,29.74,NNW,344,0.0,4.0,93,0.00,,---,1.58,0.00,VWS V14.01,2013-03-13 00:52:00,
2013-03-12 20:54:00,48.0,46.1,29.74,NNW,332,0.0,1.0,93,0.00,,---,1.58,0.00,VWS V14.01,2013-03-13 00:54:00,
2013-03-12 20:55:00,47.9,46.0,29.75,SW,236,0.0,2.0,93,0.00,,---,1.58,0.00,VWS V14.01,2013-03-13 00:55:00,
2013-03-12 20:57:00,47.9,45.7,29.74,SW,236,0.0,2.0,92,0.00,,---,1.58,0.00,VWS V14.01,2013-03-13 00:57:00,
2013-03-12 20:59:00,47.9,45.4,29.74,NNW,341,0.0,2.0,91,0.00,,---,1.58,0.00,VWS V14.01,2013-03-13 00:59:00,
2013-03-12 21:00:00,47.9,45.4,29.74,NNW,341,0.0,2.0,91,0.00,,---,1.58,0.00,VWS V14.01,2013-03-13 01:00:00,
2013-03-12 21:02:00,47.8,45.3,29.74,NNW,338,0.0,2.0,91,0.00,,---,1.58,0.00,VWS V14.01,2013-03-13 01:02:00,
2013-03-12 21:05:00,47.7,45.2,29.75,WSW,248,0.0,2.0,91,0.00,,---,1.58,0.00,VWS V14.01,2013-03-13 01:05:00,
2013-03-12 21:06:00,47.7,45.2,29.75,WSW,250,1.0,2.0,91,0.00,,---,1.58,0.00,VWS V14.01,2013-03-13 01:06:00,
2013-03-12 21:07:00,47.7,45.2,29.74,North,5,0.0,2.0,91,0.00,,---,1.58,0.00,VWS V14.01,2013-03-13 01:07:00,
2013-03-12 21:08:00,47.6,45.1,29.75,West,260,0.0,2.0,91,0.00,,---,1.58,0.00,VWS V14.01,2013-03-13 01:08:00,
2013-03-12 21:10:00,47.5,45.0,29.75,SW,224,0.0,3.0,91,0.00,,---,1.58,0.00,VWS V14.01,2013-03-13 01:10:00,
2013-03-12 21:11:00,47.5,44.7,29.75,North,355,0.0,4.0,90,0.00,,---,1.58,0.00,VWS V14.01,2013-03-13 01:11:00,
2013-03-12 21:12:00,47.5,44.7,29.75,NW,313,0.0,0.0,90,0.00,,---,1.58,0.00,VWS V14.01,2013-03-13 01:12:00,
2013-03-12 21:13:00,47.5,44.7,29.75,NW,313,0.0,0.0,90,0.00,,---,1.58,0.00,VWS V14.01,2013-03-13 01:13:00,
2013-03-12 21:15:00,47.4,44.9,29.75,NW,313,0.0,1.0,91,0.00,,---,1.58,0.00,VWS V14.01,2013-03-13 01:15:00,
2013-03-12 21:17:00,47.4,44.9,29.76,WSW,254,0.0,2.0,91,0.00,,---,1.58,0.00,VWS V14.01,2013-03-13 01:17:00,
2013-03-12 21:18:00,47.3,44.8,29.76,WSW,254,0.0,2.0,91,0.00,,---,1.58,0.00,VWS V14.01,2013-03-13 01:18:00,
2013-03-12 21:20:00,47.3,44.5,29.75,SW,223,0.0,3.0,90,0.00,,---,1.58,0.00,VWS V14.01,2013-03-13 01:20:00,
2013-03-12 21:22:00,47.2,44.4,29.76,NW,321,0.0,2.0,90,0.00,,---,1.58,0.00,VWS V14.01,2013-03-13 01:22:00,
2013-03-12 21:23:00,47.2,44.4,29.76,NW,317,1.0,2.0,90,0.00,,---,1.58,0.00,VWS V14.01,2013-03-13 01:23:00,
2013-03-12 21:25:00,47.1,44.3,29.76,NNW,334,1.0,2.0,90,0.00,,---,1.58,0.00,VWS V14.01,2013-03-13 01:25:00,
2013-03-12 21:27:00,47.0,44.2,29.76,WSW,238,0.0,2.0,90,0.00,,---,1.58,0.00,VWS V14.01,2013-03-13 01:27:00,
2013-03-12 21:28:00,47.0,44.2,29.76,WSW,238,0.0,2.0,90,0.00,,---,1.58,0.00,VWS V14.01,2013-03-13 01:28:00,
2013-03-12 21:30:00,46.9,44.1,29.76,WSW,256,0.0,2.0,90,0.00,,---,1.58,0.00,VWS V14.01,2013-03-13 01:30:00,
2013-03-12 21:33:00,46.8,44.0,29.76,North,355,2.0,3.0,90,0.00,,---,1.58,0.00,VWS V14.01,2013-03-13 01:33:00,
2013-03-12 21:36:00,46.6,43.2,29.76,North,9,0.0,4.0,88,0.00,,---,1.58,0.00,VWS V14.01,2013-03-13 01:36:00,
2013-03-12 21:38:00,46.5,42.8,29.76,WSW,240,0.0,4.0,87,0.00,,---,1.58,0.00,VWS V14.01,2013-03-13 01:38:00,
2013-03-12 21:39:00,46.5,43.1,29.76,SW,221,0.0,4.0,88,0.00,,---,1.58,0.00,VWS V14.01,2013-03-13 01:39:00,
2013-03-12 21:41:00,46.4,42.8,29.76,NNE,24,0.0,4.0,87,0.00,,---,1.58,0.00,VWS V14.01,2013-03-13 01:41:00,
2013-03-12 21:43:00,46.3,42.7,29.76,NNW,332,0.0,3.0,87,0.00,,---,1.58,0.00,VWS V14.01,2013-03-13 01:43:00,
2013-03-12 21:44:00,46.3,42.7,29.76,NW,313,0.0,3.0,87,0.00,,---,1.58,0.00,VWS V14.01,2013-03-13 01:44:00,
2013-03-12 21:46:00,46.1,42.8,29.76,NNE,22,0.0,3.0,88,0.00,,---,1.58,0.00,VWS V14.01,2013-03-13 01:46:00,
2013-03-12 21:48:00,46.0,42.3,29.76,NNE,19,0.0,3.0,87,0.00,,---,1.58,0.00,VWS V14.01,2013-03-13 01:48:00,
2013-03-12 21:49:00,45.9,42.5,29.76,NW,324,1.0,3.0,88,0.00,,---,1.58,0.00,VWS V14.01,2013-03-13 01:49:00,
2013-03-12 21:52:00,45.7,42.1,29.76,NNW,332,1.0,3.0,87,0.00,,---,1.58,0.00,VWS V14.01,2013-03-13 01:52:00,
2013-03-12 21:53:00,45.7,42.1,29.76,NNW,336,0.0,2.0,87,0.00,,---,1.58,0.00,VWS V14.01,2013-03-13 01:53:00,
2013-03-12 21:54:00,45.6,42.0,29.77,NNW,345,0.0,2.0,87,0.00,,---,1.58,0.00,VWS V14.01,2013-03-13 01:54:00,
2013-03-12 21:57:00,45.5,42.2,29.77,NW,318,0.0,2.0,88,0.00,,---,1.58,0.00,VWS V14.01,2013-03-13 01:57:00,
2013-03-12 21:58:00,45.4,42.1,29.77,West,277,0.0,3.0,88,0.00,,---,1.58,0.00,VWS V14.01,2013-03-13 01:58:00,
2013-03-12 21:59:00,45.3,42.0,29.77,NNW,337,1.0,3.0,88,0.00,,---,1.58,0.00,VWS V14.01,2013-03-13 01:59:00,
2013-03-12 22:02:00,45.2,41.9,29.77,NNW,329,0.0,3.0,88,0.00,,---,1.58,0.00,VWS V14.01,2013-03-13 02:02:00,
2013-03-12 22:03:00,45.1,41.5,29.76,NNW,333,2.0,2.0,87,0.00,,---,1.58,0.00,VWS V14.01,2013-03-13 02:03:00,
2013-03-12 22:04:00,45.1,41.5,29.77,NW,310,0.0,2.0,87,0.00,,---,1.58,0.00,VWS V14.01,2013-03-13 02:04:00,
2013-03-12 22:07:00,45.0,41.4,29.77,NNW,344,0.0,3.0,87,0.00,,---,1.58,0.00,VWS V14.01,2013-03-13 02:07:00,
2013-03-12 22:08:00,44.9,41.3,29.77,NNW,342,0.0,3.0,87,0.00,,---,1.58,0.00,VWS V14.01,2013-03-13 02:08:00,
2013-03-12 22:09:00,44.9,41.3,29.77,NNW,342,0.0,3.0,87,0.00,,---,1.58,0.00,VWS V14.01,2013-03-13 02:09:00,
2013-03-12 22:12:00,44.7,41.4,29.77,NNW,333,0.0,0.0,88,0.00,,---,1.58,0.00,VWS V14.01,2013-03-13 02:12:00,
2013-03-12 22:14:00,44.6,41.0,29.77,NW,315,0.0,0.0,87,0.00,,---,1.58,0.00,VWS V14.01,2013-03-13 02:14:00,
2013-03-12 22:15:00,44.6,41.0,29.77,NW,319,1.0,2.0,87,0.00,,---,1.58,0.00,VWS V14.01,2013-03-13 02:15:00,
2013-03-12 22:18:00,44.5,40.9,29.77,North,349,1.0,4.0,87,0.00,,---,1.58,0.00,VWS V14.01,2013-03-13 02:18:00,
2013-03-12 22:19:00,44.5,40.9,29.77,North,349,0.0,4.0,87,0.00,,---,1.58,0.00,VWS V14.01,2013-03-13 02:19:00,
2013-03-12 22:20:00,44.4,41.1,29.77,North,349,1.0,4.0,88,0.00,,---,1.58,0.00,VWS V14.01,2013-03-13 02:20:00,
2013-03-12 22:23:00,44.3,40.7,29.77,NNW,342,2.0,2.0,87,0.00,,---,1.58,0.00,VWS V14.01,2013-03-13 02:23:00,
2013-03-12 22:24:00,44.3,40.7,29.77,NNW,333,1.0,2.0,87,0.00,,---,1.58,0.00,VWS V14.01,2013-03-13 02:24:00,
2013-03-12 22:25:00,44.3,40.7,29.77,NNW,333,0.0,2.0,87,0.00,,---,1.58,0.00,VWS V14.01,2013-03-13 02:25:00,
2013-03-12 22:28:00,44.2,40.9,29.77,North,360,1.0,2.0,88,0.00,,---,1.58,0.00,VWS V14.01,2013-03-13 02:28:00,
2013-03-12 22:29:00,44.1,40.8,29.77,North,360,0.0,2.0,88,0.00,,---,1.58,0.00,VWS V14.01,2013-03-13 02:29:00,
2013-03-12 22:30:00,44.1,40.8,29.78,North,360,0.0,2.0,88,0.00,,---,1.58,0.00,VWS V14.01,2013-03-13 02:30:00,
2013-03-12 22:33:00,44.0,40.7,29.78,North,5,0.0,1.0,88,0.00,,---,1.58,0.00,VWS V14.01,2013-03-13 02:33:00,
2013-03-12 22:34:00,44.0,40.7,29.78,West,263,0.0,1.0,88,0.00,,---,1.58,0.00,VWS V14.01,2013-03-13 02:34:00,
2013-03-12 22:35:00,44.0,40.7,29.78,NNW,336,0.0,2.0,88,0.00,,---,1.58,0.00,VWS V14.01,2013-03-13 02:35:00,
2013-03-12 22:38:00,44.0,40.7,29.78,NNW,334,1.0,3.0,88,0.00,,---,1.58,0.00,VWS V14.01,2013-03-13 02:38:00,
2013-03-12 22:39:00,44.1,40.8,29.78,NNW,333,0.0,3.0,88,0.00,,---,1.58,0.00,VWS V14.01,2013-03-13 02:39:00,
2013-03-12 22:40:00,44.1,40.8,29.78,NNW,333,1.0,3.0,88,0.00,,---,1.58,0.00,VWS V14.01,2013-03-13 02:40:00,
2013-03-12 22:43:00,44.1,40.8,29.78,WSW,246,2.0,3.0,88,0.00,,---,1.58,0.00,VWS V14.01,2013-03-13 02:43:00,
2013-03-12 22:44:00,44.1,40.8,29.78,WNW,289,0.0,3.0,88,0.00,,---,1.58,0.00,VWS V14.01,2013-03-13 02:44:00,
2013-03-12 22:45:00,44.1,41.1,29.78,South,173,1.0,3.0,89,0.00,,---,1.58,0.00,VWS V14.01,2013-03-13 02:45:00,
2013-03-12 22:49:00,44.1,41.1,29.78,NNW,344,2.0,5.0,89,0.00,,---,1.58,0.00,VWS V14.01,2013-03-13 02:49:00,
2013-03-12 22:50:00,44.1,41.1,29.78,NNW,344,0.0,5.0,89,0.00,,---,1.58,0.00,VWS V14.01,2013-03-13 02:50:00,
2013-03-12 22:54:00,44.1,41.4,29.78,NNE,22,1.0,5.0,90,0.00,,---,1.58,0.00,VWS V14.01,2013-03-13 02:54:00,
2013-03-12 22:55:00,44.1,41.4,29.78,NNW,340,1.0,5.0,90,0.00,,---,1.58,0.00,VWS V14.01,2013-03-13 02:55:00,
2013-03-12 22:56:00,44.1,41.4,29.78,NNE,28,0.0,5.0,90,0.00,,---,1.58,0.00,VWS V14.01,2013-03-13 02:56:00,
2013-03-12 22:59:00,44.1,41.7,29.78,North,355,1.0,5.0,91,0.00,,---,1.58,0.00,VWS V14.01,2013-03-13 02:59:00,
2013-03-12 23:00:00,44.1,41.7,29.78,NW,326,0.0,5.0,91,0.00,,---,1.58,0.00,VWS V14.01,2013-03-13 03:00:00,
2013-03-12 23:01:00,44.1,41.7,29.78,NNW,327,2.0,5.0,91,0.00,,---,1.58,0.00,VWS V14.01,2013-03-13 03:01:00,
2013-03-12 23:04:00,44.0,41.5,29.78,North,355,0.0,3.0,91,0.00,,---,1.58,0.00,VWS V14.01,2013-03-13 03:04:00,
2013-03-12 23:05:00,44.0,41.5,29.78,East,84,0.0,3.0,91,0.00,,---,1.58,0.00,VWS V14.01,2013-03-13 03:05:00,
2013-03-12 23:06:00,44.0,41.5,29.78,NE,51,1.0,3.0,91,0.00,,---,1.58,0.00,VWS V14.01,2013-03-13 03:06:00,
2013-03-12 23:09:00,43.9,41.7,29.78,WNW,298,0.0,4.0,92,0.00,,---,1.58,0.00,VWS V14.01,2013-03-13 03:09:00,
2013-03-12 23:10:00,43.9,41.7,29.79,NW,312,0.0,4.0,92,0.00,,---,1.58,0.00,VWS V14.01,2013-03-13 03:10:00,
2013-03-12 23:11:00,43.9,41.7,29.79,NNW,343,5.0,5.0,92,0.00,,---,1.58,0.00,VWS V14.01,2013-03-13 03:11:00,
2013-03-12 23:14:00,43.7,41.2,29.78,NNE,30,1.0,5.0,91,0.00,,---,1.58,0.00,VWS V14.01,2013-03-13 03:14:00,
2013-03-12 23:15:00,43.7,41.2,29.79,North,360,1.0,5.0,91,0.00,,---,1.58,0.00,VWS V14.01,2013-03-13 03:15:00,
2013-03-12 23:17:00,43.6,41.2,29.78,North,360,0.0,5.0,91,0.00,,---,1.58,0.00,VWS V14.01,2013-03-13 03:17:00,
2013-03-12 23:19:00,43.4,41.0,29.78,North,360,0.0,5.0,91,0.00,,---,1.58,0.00,VWS V14.01,2013-03-13 03:19:00,
2013-03-12 23:20:00,43.4,41.0,29.78,East,93,0.0,5.0,91,0.00,,---,1.58,0.00,VWS V14.01,2013-03-13 03:20:00,
2013-03-12 23:21:00,43.3,40.8,29.78,North,5,1.0,5.0,91,0.00,,---,1.58,0.00,VWS V14.01,2013-03-13 03:21:00,
2013-03-12 23:22:00,43.3,40.8,29.79,NNW,348,0.0,5.0,91,0.00,,---,1.58,0.00,VWS V14.01,2013-03-13 03:22:00,
2013-03-12 23:24:00,43.2,40.8,29.78,North,355,1.0,4.0,91,0.00,,---,1.58,0.00,VWS V14.01,2013-03-13 03:24:00,
2013-03-12 23:26:00,43.1,40.7,29.78,North,355,0.0,4.0,91,0.00,,---,1.58,0.00,VWS V14.01,2013-03-13 03:26:00,
2013-03-12 23:27:00,43.1,40.7,29.78,North,355,3.0,4.0,91,0.00,,---,1.58,0.00,VWS V14.01,2013-03-13 03:27:00,
2013-03-12 23:29:00,42.9,40.5,29.78,NNW,337,2.0,4.0,91,0.00,,---,1.58,0.00,VWS V14.01,2013-03-13 03:29:00,
2013-03-12 23:31:00,42.8,40.4,29.78,NNW,337,0.0,4.0,91,0.00,,---,1.58,0.00,VWS V14.01,2013-03-13 03:31:00,
2013-03-12 23:32:00,42.7,40.3,29.78,NNW,338,0.0,4.0,91,0.00,,---,1.58,0.00,VWS V14.01,2013-03-13 03:32:00,
2013-03-12 23:34:00,42.5,40.1,29.78,NNW,339,1.0,2.0,91,0.00,,---,1.58,0.00,VWS V14.01,2013-03-13 03:34:00,
2013-03-12 23:36:00,42.4,40.0,29.78,ENE,76,3.0,3.0,91,0.00,,---,1.58,0.00,VWS V14.01,2013-03-13 03:36:00,
2013-03-12 23:37:00,42.5,40.1,29.78,ENE,59,0.0,4.0,91,0.00,,---,1.58,0.00,VWS V14.01,2013-03-13 03:37:00,
2013-03-12 23:40:00,42.3,39.6,29.78,NNW,347,2.0,4.0,90,0.00,,---,1.58,0.00,VWS V14.01,2013-03-13 03:40:00,
2013-03-12 23:41:00,42.3,39.6,29.78,NNW,347,2.0,4.0,90,0.00,,---,1.58,0.00,VWS V14.01,2013-03-13 03:41:00,
2013-03-12 23:42:00,42.2,39.5,29.78,NNW,347,0.0,0.0,90,0.00,,---,1.58,0.00,VWS V14.01,2013-03-13 03:42:00,
2013-03-12 23:43:00,42.2,39.8,29.78,NNW,347,0.0,0.0,91,0.00,,---,1.58,0.00,VWS V14.01,2013-03-13 03:43:00,
2013-03-12 23:45:00,42.1,39.4,29.78,North,360,0.0,5.0,90,0.00,,---,1.58,0.00,VWS V14.01,2013-03-13 03:45:00,
2013-03-12 23:47:00,42.0,39.3,29.78,NNW,340,1.0,5.0,90,0.00,,---,1.58,0.00,VWS V14.01,2013-03-13 03:47:00,
2013-03-12 23:48:00,41.9,39.2,29.78,NNW,340,1.0,5.0,90,0.00,,---,1.58,0.00,VWS V14.01,2013-03-13 03:48:00,
2013-03-12 23:50:00,41.8,39.1,29.78,North,355,2.0,5.0,90,0.00,,---,1.58,0.00,VWS V14.01,2013-03-13 03:50:00,
2013-03-12 23:52:00,41.7,39.0,29.78,North,355,0.0,5.0,90,0.00,,---,1.58,0.00,VWS V14.01,2013-03-13 03:52:00,
2013-03-12 23:53:00,41.6,38.9,29.78,ENE,64,2.0,2.0,90,0.00,,---,1.58,0.00,VWS V14.01,2013-03-13 03:53:00,
2013-03-12 23:55:00,41.5,38.8,29.78,North,355,0.0,2.0,90,0.00,,---,1.58,0.00,VWS V14.01,2013-03-13 03:55:00,
2013-03-12 23:57:00,41.4,38.7,29.78,North,360,0.0,2.0,90,0.00,,---,1.58,0.00,VWS V14.01,2013-03-13 03:57:00,
2013-03-12 23:58:00,41.3,38.6,29.78,North,360,0.0,2.0,90,0.00,,---,1.58,0.00,VWS V14.01,2013-03-13 03:58:00,